| time (UTC) | temp F | wind direction | speed MPH | gust MPH | rain 1hr in | rain 24hr in | rain mn in | humidity % | barometer mb |
| 20260905065040 | 80 | 155 | 0.0 | 0.0 | 0.00 | 0.04 | 0.00 | 90 | 1007.0 |
| 20260905064941 | 80 | 155 | 0.0 | 0.0 | 0.00 | 0.04 | 0.00 | 90 | 1007.0 |
| 20260905064842 | 80 | 155 | 0.0 | 0.0 | 0.00 | 0.04 | 0.00 | 90 | 1007.0 |
| 20260905064740 | 80 | 155 | 0.0 | 0.0 | 0.00 | 0.04 | 0.00 | 90 | 1007.0 |
| 20260905064641 | 80 | 155 | 0.0 | 0.0 | 0.00 | 0.04 | 0.00 | 90 | 1007.0 |
| 20260905064542 | 80 | 155 | 0.0 | 0.0 | 0.00 | 0.04 | 0.00 | 90 | 1007.1 |
| 20260905064442 | 80 | 155 | 0.0 | 0.0 | 0.00 | 0.04 | 0.00 | 90 | 1007.0 |
| 20260905064341 | 80 | 155 | 0.0 | 0.0 | 0.00 | 0.04 | 0.00 | 90 | 1007.0 |
| 20260905064242 | 80 | 155 | 0.0 | 0.0 | 0.00 | 0.04 | 0.00 | 90 | 1007.0 |
| 20260905064142 | 80 | 155 | 0.0 | 0.0 | 0.00 | 0.04 | 0.00 | 89 | 1007.1 |
| 20260905064041 | 80 | 155 | 0.0 | 0.0 | 0.00 | 0.04 | 0.00 | 89 | 1007.1 |
| 20260905063942 | 80 | 155 | 0.0 | 0.0 | 0.00 | 0.04 | 0.00 | 89 | 1007.0 |
| 20260905063841 | 80 | 155 | 0.0 | 0.0 | 0.00 | 0.04 | 0.00 | 89 | 1007.1 |
| 20260905063742 | 80 | 155 | 0.0 | 0.0 | 0.00 | 0.04 | 0.00 | 89 | 1007.0 |
| 20260905063641 | 80 | 155 | 0.0 | 0.0 | 0.00 | 0.04 | 0.00 | 89 | 1007.0 |
| 20260905063540 | 80 | 155 | 0.0 | 0.0 | 0.00 | 0.04 | 0.00 | 89 | 1007.1 |
| 20260905063440 | 80 | 155 | 0.0 | 0.0 | 0.00 | 0.04 | 0.00 | 89 | 1007.1 |
| 20260905063341 | 80 | 155 | 0.0 | 0.0 | 0.00 | 0.04 | 0.00 | 89 | 1007.1 |
| 20260905063241 | 80 | 155 | 0.0 | 0.0 | 0.00 | 0.04 | 0.00 | 89 | 1007.1 |
| 20260905063141 | 80 | 155 | 0.0 | 0.0 | 0.00 | 0.04 | 0.00 | 89 | 1007.1 |
| 20260905063040 | 80 | 155 | 0.0 | 0.0 | 0.00 | 0.04 | 0.00 | 89 | 1007.1 |
| 20260905062940 | 81 | 155 | 0.0 | 0.0 | 0.00 | 0.04 | 0.00 | 89 | 1007.1 |
| 20260905062842 | 81 | 155 | 0.0 | 0.0 | 0.00 | 0.04 | 0.00 | 89 | 1007.3 |
| 20260905062741 | 81 | 155 | 0.0 | 0.0 | 0.00 | 0.04 | 0.00 | 88 | 1007.2 |
| 20260905062641 | 81 | 155 | 0.0 | 0.0 | 0.00 | 0.04 | 0.00 | 88 | 1007.3 |
| 20260905062541 | 81 | 155 | 0.0 | 0.0 | 0.00 | 0.04 | 0.00 | 88 | 1007.2 |
| 20260905062442 | 81 | 155 | 0.0 | 0.0 | 0.00 | 0.04 | 0.00 | 88 | 1007.2 |
| 20260905062341 | 81 | 155 | 0.0 | 0.0 | 0.00 | 0.04 | 0.00 | 88 | 1007.3 |
| 20260905062242 | 81 | 155 | 0.0 | 0.0 | 0.00 | 0.04 | 0.00 | 88 | 1007.3 |
| 20260905062142 | 81 | 155 | 0.0 | 0.0 | 0.00 | 0.04 | 0.00 | 88 | 1007.3 |
| 20260905062041 | 81 | 155 | 0.0 | 0.0 | 0.00 | 0.04 | 0.00 | 88 | 1007.3 |
| 20260905061942 | 81 | 155 | 0.0 | 0.0 | 0.00 | 0.04 | 0.00 | 88 | 1007.3 |
| 20260905061840 | 81 | 155 | 0.0 | 0.0 | 0.00 | 0.04 | 0.00 | 88 | 1007.3 |
| 20260905061741 | 81 | 155 | 0.0 | 0.0 | 0.00 | 0.04 | 0.00 | 88 | 1007.3 |
| 20260905061640 | 81 | 155 | 0.0 | 0.0 | 0.00 | 0.04 | 0.00 | 88 | 1007.3 |
| 20260905061539 | 81 | 155 | 0.0 | 0.0 | 0.00 | 0.04 | 0.00 | 88 | 1007.4 |
| 20260905061439 | 81 | 155 | 0.0 | 1.0 | 0.00 | 0.04 | 0.00 | 88 | 1007.4 |
| 20260905061341 | 81 | 155 | 0.0 | 1.0 | 0.00 | 0.04 | 0.00 | 88 | 1007.3 |
| 20260905061240 | 81 | 155 | 0.0 | 1.0 | 0.00 | 0.04 | 0.00 | 88 | 1007.3 |
| 20260905061141 | 81 | 155 | 0.0 | 1.0 | 0.00 | 0.04 | 0.00 | 88 | 1007.4 |
| 20260905061039 | 81 | 155 | 0.0 | 1.0 | 0.00 | 0.04 | 0.00 | 88 | 1007.4 |
| 20260905060940 | 81 | 155 | 0.0 | 1.0 | 0.00 | 0.04 | 0.00 | 88 | 1007.4 |
| 20260905060839 | 81 | 155 | 0.0 | 1.0 | 0.00 | 0.04 | 0.00 | 88 | 1007.4 |
| 20260905060740 | 81 | 155 | 0.0 | 1.0 | 0.00 | 0.04 | 0.00 | 88 | 1007.3 |
| 20260905060641 | 81 | 155 | 0.0 | 1.0 | 0.00 | 0.04 | 0.00 | 88 | 1007.4 |
| 20260905060539 | 81 | 155 | 0.0 | 1.0 | 0.00 | 0.04 | 0.00 | 88 | 1007.4 |
| 20260905060441 | 81 | 155 | 0.0 | 0.0 | 0.00 | 0.04 | 0.00 | 88 | 1007.4 |
| 20260905060341 | 81 | 154 | 0.0 | 0.0 | 0.00 | 0.04 | 0.00 | 88 | 1007.4 |
| 20260905060240 | 81 | 154 | 0.0 | 0.0 | 0.00 | 0.04 | 0.00 | 88 | 1007.4 |
| 20260905060141 | 81 | 154 | 0.0 | 0.0 | 0.00 | 0.04 | 0.00 | 88 | 1007.4 |
| 20260905060041 | 81 | 155 | 0.0 | 1.0 | 0.00 | 0.04 | 0.00 | 88 | 1007.4 |
| 20260905055941 | 81 | 154 | 0.0 | 1.0 | 0.00 | 0.04 | 0.00 | 88 | 1007.4 |
| 20260905055840 | 81 | 155 | 0.0 | 1.0 | 0.00 | 0.04 | 0.00 | 88 | 1007.4 |
| 20260905055742 | 81 | 155 | 0.0 | 1.0 | 0.00 | 0.04 | 0.00 | 88 | 1007.3 |
| 20260905055639 | 81 | 155 | 0.0 | 2.0 | 0.00 | 0.04 | 0.00 | 87 | 1007.4 |
| 20260905055539 | 81 | 155 | 0.0 | 2.0 | 0.00 | 0.04 | 0.00 | 87 | 1007.4 |
| 20260905055442 | 81 | 154 | 0.0 | 2.0 | 0.00 | 0.04 | 0.00 | 87 | 1007.4 |
| 20260905055331 | 81 | 154 | 0.0 | 2.0 | 0.00 | 0.04 | 0.00 | 87 | 1007.3 |
| 20260905055232 | 81 | 154 | 0.0 | 2.0 | 0.00 | 0.04 | 0.00 | 87 | 1007.3 |
| 20260905055132 | 81 | 155 | 0.0 | 2.0 | 0.00 | 0.04 | 0.00 | 87 | 1007.3 |
| 20260905055032 | 81 | 154 | 0.0 | 2.0 | 0.00 | 0.04 | 0.00 | 87 | 1007.3 |
| 20260905054932 | 81 | 154 | 0.0 | 2.0 | 0.00 | 0.04 | 0.00 | 87 | 1007.2 |
| 20260905054833 | 81 | 154 | 0.0 | 2.0 | 0.00 | 0.04 | 0.00 | 87 | 1007.3 |
| 20260905054731 | 81 | 154 | 0.0 | 2.0 | 0.00 | 0.04 | 0.00 | 87 | 1007.2 |
| 20260905054631 | 81 | 152 | 0.0 | 2.0 | 0.00 | 0.04 | 0.00 | 87 | 1007.2 |
| 20260905054532 | 81 | 152 | 0.0 | 2.0 | 0.00 | 0.04 | 0.00 | 87 | 1007.2 |
| 20260905054433 | 81 | 152 | 0.0 | 2.0 | 0.00 | 0.04 | 0.00 | 87 | 1007.2 |
| 20260905054333 | 81 | 157 | 0.0 | 2.0 | 0.00 | 0.04 | 0.00 | 87 | 1007.2 |
| 20260905054232 | 81 | 157 | 0.0 | 2.0 | 0.00 | 0.04 | 0.00 | 87 | 1007.2 |
| 20260905054132 | 81 | 152 | 0.0 | 2.0 | 0.00 | 0.04 | 0.00 | 87 | 1007.1 |
| 20260905054032 | 81 | 149 | 1.0 | 2.0 | 0.00 | 0.04 | 0.00 | 87 | 1007.2 |
| 20260905053931 | 81 | 149 | 1.0 | 2.0 | 0.00 | 0.04 | 0.00 | 87 | 1007.2 |
| 20260905053831 | 82 | 144 | 1.0 | 2.0 | 0.00 | 0.04 | 0.00 | 87 | 1007.2 |
| 20260905053732 | 81 | 148 | 0.0 | 2.0 | 0.00 | 0.04 | 0.00 | 87 | 1007.2 |
| 20260905053633 | 82 | 148 | 1.0 | 2.0 | 0.00 | 0.04 | 0.00 | 87 | 1007.2 |
| 20260905053532 | 82 | 148 | 1.0 | 2.0 | 0.00 | 0.04 | 0.00 | 87 | 1007.2 |
| 20260905053432 | 82 | 148 | 0.0 | 2.0 | 0.00 | 0.04 | 0.00 | 87 | 1007.2 |
| 20260905053333 | 82 | 148 | 0.0 | 1.0 | 0.00 | 0.04 | 0.00 | 87 | 1007.2 |
| 20260905053232 | 82 | 148 | 0.0 | 1.0 | 0.00 | 0.04 | 0.00 | 87 | 1007.3 |
| 20260905053132 | 82 | 148 | 0.0 | 1.0 | 0.00 | 0.04 | 0.00 | 87 | 1007.3 |
| 20260905053031 | 82 | 148 | 0.0 | 1.0 | 0.00 | 0.04 | 0.00 | 87 | 1007.4 |
| 20260905052933 | 82 | 148 | 0.0 | 2.0 | 0.00 | 0.04 | 0.00 | 87 | 1007.3 |
| 20260905052832 | 82 | 148 | 0.0 | 2.0 | 0.00 | 0.04 | 0.00 | 87 | 1007.3 |
| 20260905052733 | 82 | 148 | 0.0 | 2.0 | 0.00 | 0.04 | 0.00 | 87 | 1007.4 |
| 20260905052632 | 82 | 147 | 0.0 | 2.0 | 0.00 | 0.04 | 0.00 | 87 | 1007.3 |
| 20260905052533 | 82 | 147 | 0.0 | 2.0 | 0.00 | 0.04 | 0.00 | 86 | 1007.3 |
| 20260905052430 | 82 | 147 | 0.0 | 2.0 | 0.00 | 0.04 | 0.00 | 86 | 1007.4 |
| 20260905052332 | 82 | 147 | 0.0 | 3.0 | 0.00 | 0.04 | 0.00 | 86 | 1007.3 |
| 20260905052233 | 82 | 147 | 0.0 | 3.0 | 0.00 | 0.04 | 0.00 | 86 | 1007.4 |
| 20260905052132 | 82 | 147 | 0.0 | 3.0 | 0.00 | 0.04 | 0.00 | 86 | 1007.4 |
| 20260905052033 | 82 | 147 | 1.0 | 3.0 | 0.00 | 0.04 | 0.00 | 86 | 1007.3 |
| 20260905051931 | 82 | 147 | 0.0 | 3.0 | 0.00 | 0.04 | 0.00 | 86 | 1007.2 |
| 20260905051833 | 82 | 148 | 0.0 | 3.0 | 0.00 | 0.04 | 0.00 | 86 | 1007.2 |
| 20260905051732 | 82 | 148 | 0.0 | 3.0 | 0.00 | 0.04 | 0.00 | 86 | 1007.2 |
| 20260905051632 | 82 | 148 | 0.0 | 3.0 | 0.00 | 0.04 | 0.00 | 86 | 1007.2 |
| 20260905051531 | 82 | 148 | 1.0 | 3.0 | 0.00 | 0.04 | 0.00 | 86 | 1007.2 |
| 20260905051433 | 82 | 149 | 2.0 | 4.0 | 0.00 | 0.04 | 0.00 | 86 | 1007.2 |
| 20260905051333 | 82 | 148 | 1.0 | 4.0 | 0.00 | 0.04 | 0.00 | 86 | 1007.1 |
| 20260905051231 | 82 | 142 | 1.0 | 4.0 | 0.00 | 0.04 | 0.00 | 86 | 1007.1 |
| 20260905051133 | 82 | 138 | 0.0 | 4.0 | 0.00 | 0.04 | 0.00 | 86 | 1007.2 |
| 20260905051032 | 82 | 137 | 0.0 | 4.0 | 0.00 | 0.04 | 0.00 | 86 | 1007.3 |
| 20260905050933 | 82 | 137 | 0.0 | 4.0 | 0.00 | 0.04 | 0.00 | 86 | 1007.3 |
| 20260905050832 | 82 | 133 | 0.0 | 4.0 | 0.00 | 0.04 | 0.00 | 86 | 1007.3 |
| 20260905050731 | 82 | 133 | 0.0 | 4.0 | 0.00 | 0.04 | 0.00 | 86 | 1007.2 |
| 20260905050632 | 82 | 131 | 1.0 | 4.0 | 0.00 | 0.04 | 0.00 | 86 | 1007.3 |
| 20260905050532 | 82 | 133 | 2.0 | 4.0 | 0.00 | 0.04 | 0.00 | 86 | 1007.2 |
| 20260905050422 | 82 | 155 | 2.0 | 4.0 | 0.00 | 0.04 | 0.00 | 86 | 1007.2 |
| 20260905050318 | 82 | 154 | 2.0 | 4.0 | 0.00 | 0.04 | 0.00 | 86 | 1007.2 |
| 20260905050217 | 82 | 151 | 1.0 | 4.0 | 0.00 | 0.04 | 0.00 | 86 | 1007.1 |
| 20260905050112 | 82 | 149 | 0.0 | 4.0 | 0.00 | 0.04 | 0.00 | 86 | 1007.1 |
| 20260905050006 | 82 | 152 | 0.0 | 4.0 | 0.00 | 0.04 | 0.00 | 85 | 1007.1 |
| 20260905045903 | 82 | 152 | 1.0 | 4.0 | 0.00 | 0.04 | 0.04 | 85 | 1007.1 |
| 20260905045804 | 82 | 149 | 1.0 | 4.0 | 0.00 | 0.04 | 0.04 | 85 | 1007.1 |
| 20260905045703 | 82 | 158 | 1.0 | 4.0 | 0.00 | 0.04 | 0.04 | 85 | 1007.2 |
| 20260905045603 | 82 | 151 | 1.0 | 3.0 | 0.00 | 0.04 | 0.04 | 85 | 1007.1 |
| 20260905045504 | 82 | 155 | 1.0 | 3.0 | 0.00 | 0.04 | 0.04 | 85 | 1007.1 |
| 20260905045403 | 82 | 158 | 1.0 | 3.0 | 0.00 | 0.04 | 0.04 | 85 | 1007.1 |
| 20260905045306 | 82 | 157 | 2.0 | 3.0 | 0.00 | 0.04 | 0.04 | 85 | 1007.2 |
| 20260905045203 | 82 | 157 | 2.0 | 3.0 | 0.00 | 0.04 | 0.04 | 85 | 1007.1 |
| 20260905045103 | 82 | 161 | 1.0 | 3.0 | 0.00 | 0.04 | 0.04 | 85 | 1007.1 |
| 20260905045003 | 82 | 172 | 1.0 | 3.0 | 0.00 | 0.04 | 0.04 | 85 | 1007.1 |
| 20260905044904 | 82 | 145 | 1.0 | 3.0 | 0.00 | 0.04 | 0.04 | 85 | 1007.2 |
| 20260905044804 | 82 | 145 | 1.0 | 3.0 | 0.00 | 0.04 | 0.04 | 85 | 1007.2 |
| 20260905044703 | 82 | 138 | 2.0 | 3.0 | 0.00 | 0.04 | 0.04 | 85 | 1007.3 |
| 20260905044604 | 82 | 140 | 2.0 | 3.0 | 0.00 | 0.04 | 0.04 | 85 | 1007.2 |
| 20260905044504 | 82 | 138 | 2.0 | 3.0 | 0.00 | 0.04 | 0.04 | 85 | 1007.3 |
| 20260905044402 | 82 | 145 | 1.0 | 2.0 | 0.00 | 0.04 | 0.04 | 85 | 1007.3 |
| 20260905044303 | 82 | 151 | 1.0 | 2.0 | 0.00 | 0.04 | 0.04 | 85 | 1007.3 |
| 20260905044203 | 82 | 151 | 1.0 | 2.0 | 0.00 | 0.04 | 0.04 | 85 | 1007.3 |
| 20260905044104 | 82 | 159 | 0.0 | 2.0 | 0.00 | 0.04 | 0.04 | 85 | 1007.3 |
| 20260905044003 | 82 | 159 | 0.0 | 2.0 | 0.00 | 0.04 | 0.04 | 85 | 1007.4 |
| 20260905043903 | 82 | 159 | 0.0 | 2.0 | 0.00 | 0.04 | 0.04 | 85 | 1007.3 |
| 20260905043803 | 82 | 159 | 0.0 | 2.0 | 0.00 | 0.04 | 0.04 | 85 | 1007.3 |
| 20260905043702 | 83 | 159 | 1.0 | 2.0 | 0.00 | 0.04 | 0.04 | 84 | 1007.3 |
| 20260905043602 | 83 | 159 | 1.0 | 2.0 | 0.00 | 0.04 | 0.04 | 84 | 1007.4 |
| 20260905043505 | 83 | 161 | 1.0 | 2.0 | 0.00 | 0.04 | 0.04 | 84 | 1007.4 |
| 20260905043402 | 83 | 161 | 1.0 | 3.0 | 0.00 | 0.04 | 0.04 | 84 | 1007.4 |
| 20260905043303 | 83 | 168 | 0.0 | 3.0 | 0.00 | 0.04 | 0.04 | 84 | 1007.4 |
| 20260905043204 | 83 | 168 | 1.0 | 3.0 | 0.00 | 0.04 | 0.04 | 84 | 1007.4 |
| 20260905043104 | 83 | 168 | 1.0 | 4.0 | 0.00 | 0.04 | 0.04 | 84 | 1007.4 |
| 20260905043004 | 83 | 172 | 1.0 | 4.0 | 0.00 | 0.04 | 0.04 | 84 | 1007.3 |
| 20260905042903 | 83 | 176 | 1.0 | 4.0 | 0.00 | 0.04 | 0.04 | 84 | 1007.4 |
| 20260905042803 | 83 | 154 | 1.0 | 4.0 | 0.00 | 0.04 | 0.04 | 84 | 1007.3 |
| 20260905042703 | 83 | 161 | 1.0 | 4.0 | 0.00 | 0.04 | 0.04 | 84 | 1007.4 |
| 20260905042604 | 83 | 162 | 1.0 | 4.0 | 0.00 | 0.04 | 0.04 | 84 | 1007.4 |
| 20260905042503 | 83 | 154 | 1.0 | 4.0 | 0.00 | 0.04 | 0.04 | 84 | 1007.4 |
| 20260905042403 | 83 | 151 | 2.0 | 4.0 | 0.00 | 0.04 | 0.04 | 84 | 1007.4 |
| 20260905042307 | 83 | 152 | 2.0 | 4.0 | 0.00 | 0.04 | 0.04 | 84 | 1007.4 |
| 20260905042203 | 83 | 149 | 1.0 | 4.0 | 0.00 | 0.04 | 0.04 | 84 | 1007.4 |
| 20260905042104 | 83 | 152 | 1.0 | 2.0 | 0.00 | 0.04 | 0.04 | 84 | 1007.4 |
| 20260905042004 | 83 | 158 | 0.0 | 2.0 | 0.00 | 0.04 | 0.04 | 84 | 1007.5 |
| 20260905041904 | 83 | 155 | 0.0 | 2.0 | 0.00 | 0.04 | 0.04 | 84 | 1007.4 |
| 20260905041804 | 83 | 155 | 0.0 | 2.0 | 0.00 | 0.04 | 0.04 | 84 | 1007.5 |
| 20260905041704 | 83 | 155 | 0.0 | 2.0 | 0.00 | 0.04 | 0.04 | 84 | 1007.4 |
| 20260905041603 | 83 | 155 | 0.0 | 2.0 | 0.00 | 0.04 | 0.04 | 84 | 1007.5 |
| 20260905041504 | 83 | 155 | 0.0 | 2.0 | 0.00 | 0.04 | 0.04 | 84 | 1007.4 |
| 20260905041403 | 83 | 155 | 0.0 | 2.0 | 0.00 | 0.04 | 0.04 | 84 | 1007.4 |
| 20260905041303 | 83 | 157 | 0.0 | 2.0 | 0.00 | 0.04 | 0.04 | 84 | 1007.4 |
| 20260905041203 | 83 | 157 | 0.0 | 2.0 | 0.00 | 0.04 | 0.04 | 84 | 1007.5 |
| 20260905041104 | 83 | 157 | 0.0 | 2.0 | 0.00 | 0.04 | 0.04 | 84 | 1007.4 |
| 20260905041004 | 83 | 157 | 0.0 | 2.0 | 0.00 | 0.04 | 0.04 | 83 | 1007.4 |
| 20260905040903 | 83 | 157 | 0.0 | 2.0 | 0.00 | 0.04 | 0.04 | 83 | 1007.4 |
| 20260905040802 | 83 | 157 | 1.0 | 4.0 | 0.00 | 0.04 | 0.04 | 83 | 1007.4 |
| 20260905040703 | 83 | 158 | 1.0 | 4.0 | 0.00 | 0.04 | 0.04 | 83 | 1007.4 |
| 20260905040604 | 83 | 158 | 0.0 | 4.0 | 0.00 | 0.04 | 0.04 | 83 | 1007.4 |
| 20260905040503 | 83 | 158 | 1.0 | 4.0 | 0.00 | 0.04 | 0.04 | 83 | 1007.5 |
| 20260905040403 | 83 | 161 | 1.0 | 4.0 | 0.00 | 0.04 | 0.04 | 83 | 1007.5 |
| 20260905040303 | 83 | 158 | 1.0 | 4.0 | 0.00 | 0.04 | 0.04 | 83 | 1007.5 |
| 20260905040203 | 83 | 161 | 1.0 | 4.0 | 0.00 | 0.04 | 0.04 | 83 | 1007.4 |
| 20260905040103 | 83 | 161 | 1.0 | 4.0 | 0.00 | 0.04 | 0.04 | 83 | 1007.4 |
| 20260905040004 | 83 | 161 | 1.0 | 4.0 | 0.00 | 0.04 | 0.04 | 83 | 1007.5 |
| 20260905035903 | 83 | 162 | 1.0 | 4.0 | 0.00 | 0.04 | 0.04 | 83 | 1007.5 |
| 20260905035804 | 83 | 151 | 1.0 | 4.0 | 0.00 | 0.04 | 0.04 | 83 | 1007.4 |
| 20260905035703 | 83 | 151 | 1.0 | 4.0 | 0.00 | 0.04 | 0.04 | 83 | 1007.5 |
| 20260905035602 | 83 | 151 | 0.0 | 4.0 | 0.00 | 0.04 | 0.04 | 83 | 1007.5 |
| 20260905035503 | 83 | 151 | 0.0 | 4.0 | 0.00 | 0.04 | 0.04 | 83 | 1007.5 |
| 20260905035403 | 83 | 152 | 1.0 | 4.0 | 0.00 | 0.04 | 0.04 | 83 | 1007.5 |
| 20260905035306 | 83 | 147 | 1.0 | 4.0 | 0.00 | 0.04 | 0.04 | 83 | 1007.5 |
| 20260905035202 | 83 | 134 | 2.0 | 4.0 | 0.00 | 0.04 | 0.04 | 83 | 1007.5 |
| 20260905035103 | 83 | 128 | 1.0 | 4.0 | 0.00 | 0.04 | 0.04 | 83 | 1007.5 |
| 20260905035004 | 83 | 134 | 1.0 | 4.0 | 0.00 | 0.04 | 0.04 | 83 | 1007.6 |
| 20260905034903 | 83 | 134 | 1.0 | 4.0 | 0.00 | 0.04 | 0.04 | 83 | 1007.5 |
| 20260905034802 | 83 | 134 | 2.0 | 4.0 | 0.00 | 0.04 | 0.04 | 83 | 1007.6 |
| 20260905034705 | 83 | 133 | 2.0 | 4.0 | 0.00 | 0.04 | 0.04 | 83 | 1007.6 |
| 20260905034602 | 83 | 131 | 2.0 | 4.0 | 0.00 | 0.04 | 0.04 | 83 | 1007.6 |
| 20260905034505 | 83 | 164 | 2.0 | 3.0 | 0.00 | 0.04 | 0.04 | 83 | 1007.6 |
| 20260905034403 | 83 | 107 | 2.0 | 3.0 | 0.00 | 0.04 | 0.04 | 82 | 1007.6 |
| 20260905034304 | 83 | 152 | 2.0 | 3.0 | 0.00 | 0.04 | 0.04 | 82 | 1007.6 |
| 20260905034203 | 83 | 154 | 2.0 | 3.0 | 0.00 | 0.04 | 0.04 | 82 | 1007.6 |
| 20260905034104 | 83 | 158 | 2.0 | 3.0 | 0.00 | 0.04 | 0.04 | 82 | 1007.6 |
| 20260905034003 | 83 | 152 | 2.0 | 4.0 | 0.00 | 0.04 | 0.04 | 82 | 1007.6 |
| 20260905033903 | 83 | 152 | 2.0 | 4.0 | 0.00 | 0.04 | 0.04 | 82 | 1007.7 |
| 20260905033803 | 83 | 152 | 2.0 | 4.0 | 0.00 | 0.04 | 0.04 | 82 | 1007.6 |
| 20260905033704 | 83 | 152 | 2.0 | 4.0 | 0.00 | 0.04 | 0.04 | 82 | 1007.6 |
| 20260905033603 | 83 | 152 | 2.0 | 5.0 | 0.00 | 0.04 | 0.04 | 82 | 1007.7 |
| 20260905033504 | 83 | 152 | 2.0 | 6.0 | 0.00 | 0.04 | 0.04 | 82 | 1007.6 |
| 20260905033403 | 83 | 152 | 2.0 | 6.0 | 0.00 | 0.04 | 0.04 | 82 | 1007.5 |
| 20260905033304 | 83 | 152 | 2.0 | 6.0 | 0.00 | 0.04 | 0.04 | 82 | 1007.7 |
| 20260905033203 | 83 | 152 | 2.0 | 6.0 | 0.00 | 0.04 | 0.04 | 82 | 1007.6 |
| 20260905033104 | 83 | 152 | 2.0 | 6.0 | 0.00 | 0.04 | 0.04 | 82 | 1007.6 |
| 20260905033005 | 83 | 127 | 2.0 | 6.0 | 0.00 | 0.04 | 0.04 | 82 | 1007.6 |
| 20260905032904 | 83 | 110 | 2.0 | 6.0 | 0.00 | 0.04 | 0.04 | 82 | 1007.6 |
| 20260905032803 | 83 | 123 | 3.0 | 6.0 | 0.00 | 0.04 | 0.04 | 82 | 1007.6 |
| 20260905032703 | 83 | 149 | 4.0 | 6.0 | 0.00 | 0.04 | 0.04 | 82 | 1007.6 |
| 20260905032603 | 83 | 138 | 3.0 | 6.0 | 0.00 | 0.04 | 0.04 | 82 | 1007.6 |
| 20260905032504 | 84 | 130 | 3.0 | 4.0 | 0.00 | 0.04 | 0.04 | 82 | 1007.5 |
| 20260905032403 | 84 | 131 | 3.0 | 4.0 | 0.00 | 0.04 | 0.04 | 82 | 1007.5 |
| 20260905032305 | 84 | 118 | 2.0 | 4.0 | 0.00 | 0.04 | 0.04 | 82 | 1007.5 |
| 20260905032204 | 84 | 161 | 2.0 | 4.0 | 0.00 | 0.04 | 0.04 | 81 | 1007.5 |
| 20260905032104 | 0 | 0.0 | 0.0 | 0.00 | 0.04 | 0.04 | 1007.5 | ||
| 20260905032003 | 0 | 0.0 | 0.0 | 0.00 | 0.04 | 0.04 | 1007.6 | ||
| 20260905031904 | 0 | 0.0 | 0.0 | 0.00 | 0.04 | 0.04 | 1007.6 | ||
| 20260905031803 | 0 | 0.0 | 0.0 | 0.00 | 0.04 | 0.04 | 1007.5 | ||
| 20260905031705 | 0 | 0.0 | 0.0 | 0.00 | 0.04 | 0.04 | 1007.6 | ||
| 20260905031605 | 84 | 120 | 3.0 | 4.0 | 0.00 | 0.04 | 0.04 | 81 | 1007.6 |
| 20260905031504 | 84 | 120 | 3.0 | 4.0 | 0.00 | 0.04 | 0.04 | 81 | 1007.6 |
| 20260905031404 | 84 | 120 | 3.0 | 6.0 | 0.00 | 0.04 | 0.04 | 81 | 1007.5 |
| 20260905031305 | 84 | 120 | 3.0 | 6.0 | 0.00 | 0.04 | 0.04 | 81 | 1007.5 |
| 20260905031203 | 84 | 120 | 3.0 | 6.0 | 0.00 | 0.04 | 0.04 | 81 | 1007.5 |
| 20260905031103 | 84 | 120 | 3.0 | 6.0 | 0.00 | 0.04 | 0.04 | 81 | 1007.6 |
| 20260905031005 | 84 | 120 | 3.0 | 6.0 | 0.00 | 0.04 | 0.04 | 81 | 1007.6 |
| 20260905030903 | 84 | 120 | 3.0 | 6.0 | 0.00 | 0.04 | 0.04 | 81 | 1007.6 |
| 20260905030803 | 84 | 120 | 3.0 | 6.0 | 0.00 | 0.04 | 0.04 | 81 | 1007.6 |
| 20260905030704 | 84 | 120 | 3.0 | 6.0 | 0.00 | 0.04 | 0.04 | 81 | 1007.6 |
| 20260905030604 | 84 | 151 | 3.0 | 6.0 | 0.00 | 0.04 | 0.04 | 81 | 1007.7 |
| 20260905030502 | 84 | 145 | 4.0 | 6.0 | 0.00 | 0.04 | 0.04 | 80 | 1007.6 |
| 20260905030404 | 84 | 152 | 3.0 | 5.0 | 0.00 | 0.04 | 0.04 | 80 | 1007.7 |
| 20260905030304 | 84 | 144 | 2.0 | 5.0 | 0.00 | 0.04 | 0.04 | 80 | 1007.6 |
| 20260905030204 | 84 | 149 | 3.0 | 5.0 | 0.00 | 0.04 | 0.04 | 80 | 1007.7 |
| 20260905030105 | 84 | 155 | 3.0 | 5.0 | 0.00 | 0.04 | 0.04 | 80 | 1007.6 |
| 20260905030000 | 84 | 148 | 3.0 | 4.0 | 0.00 | 0.04 | 0.04 | 80 | 1007.7 |
| 20260905025856 | 84 | 120 | 2.0 | 5.0 | 0.00 | 0.04 | 0.04 | 80 | 1007.6 |
| 20260905025749 | 84 | 148 | 2.0 | 5.0 | 0.00 | 0.04 | 0.04 | 80 | 1007.6 |
| 20260905025642 | 84 | 145 | 3.0 | 5.0 | 0.00 | 0.04 | 0.04 | 80 | 1007.7 |
| 20260905025531 | 84 | 134 | 3.0 | 5.0 | 0.00 | 0.04 | 0.04 | 80 | 1007.6 |
| 20260905025432 | 84 | 157 | 3.0 | 5.0 | 0.00 | 0.04 | 0.04 | 80 | 1007.7 |
| 20260905025332 | 84 | 165 | 3.0 | 5.0 | 0.00 | 0.04 | 0.04 | 80 | 1007.6 |
| 20260905025231 | 84 | 131 | 2.0 | 5.0 | 0.00 | 0.04 | 0.04 | 79 | 1007.6 |
| 20260905025132 | 84 | 131 | 2.0 | 5.0 | 0.00 | 0.04 | 0.04 | 79 | 1007.7 |
| 20260905025031 | 84 | 127 | 2.0 | 5.0 | 0.00 | 0.04 | 0.04 | 79 | 1007.6 |
| 20260905024932 | 84 | 118 | 2.0 | 5.0 | 0.00 | 0.04 | 0.04 | 79 | 1007.5 |
| 20260905024832 | 84 | 155 | 2.0 | 5.0 | 0.00 | 0.04 | 0.04 | 79 | 1007.5 |
| 20260905024732 | 84 | 149 | 2.0 | 5.0 | 0.00 | 0.04 | 0.04 | 79 | 1007.4 |
| 20260905024631 | 84 | 145 | 2.0 | 5.0 | 0.00 | 0.04 | 0.04 | 79 | 1007.5 |
| 20260905024532 | 84 | 133 | 3.0 | 5.0 | 0.00 | 0.04 | 0.04 | 79 | 1007.5 |
| 20260905024431 | 84 | 113 | 2.0 | 5.0 | 0.00 | 0.04 | 0.04 | 79 | 1007.5 |
| 20260905024332 | 84 | 138 | 1.0 | 5.0 | 0.00 | 0.04 | 0.04 | 79 | 1007.4 |
| 20260905024231 | 84 | 117 | 2.0 | 5.0 | 0.00 | 0.04 | 0.04 | 78 | 1007.4 |
| 20260905024132 | 84 | 111 | 3.0 | 5.0 | 0.00 | 0.04 | 0.04 | 78 | 1007.4 |
| 20260905024032 | 84 | 147 | 3.0 | 5.0 | 0.00 | 0.04 | 0.04 | 78 | 1007.4 |
| 20260905023930 | 84 | 161 | 3.0 | 5.0 | 0.00 | 0.04 | 0.04 | 78 | 1007.4 |
| 20260905023831 | 84 | 128 | 2.0 | 2.0 | 0.00 | 0.04 | 0.04 | 78 | 1007.4 |
| 20260905023730 | 84 | 130 | 1.0 | 2.0 | 0.00 | 0.04 | 0.04 | 78 | 1007.4 |
| 20260905023632 | 83 | 130 | 1.0 | 2.0 | 0.00 | 0.04 | 0.04 | 78 | 1007.4 |
| 20260905023531 | 83 | 127 | 0.0 | 2.0 | 0.00 | 0.04 | 0.04 | 78 | 1007.4 |
| 20260905023432 | 83 | 127 | 0.0 | 2.0 | 0.00 | 0.04 | 0.04 | 78 | 1007.3 |
| 20260905023332 | 83 | 127 | 0.0 | 2.0 | 0.00 | 0.04 | 0.04 | 78 | 1007.3 |
| 20260905023231 | 83 | 125 | 0.0 | 2.0 | 0.00 | 0.04 | 0.04 | 78 | 1007.4 |
| 20260905023131 | 83 | 124 | 0.0 | 2.0 | 0.00 | 0.04 | 0.04 | 78 | 1007.4 |
| 20260905023031 | 83 | 124 | 0.0 | 2.0 | 0.00 | 0.04 | 0.04 | 78 | 1007.3 |
| 20260905022933 | 83 | 124 | 0.0 | 2.0 | 0.00 | 0.04 | 0.04 | 78 | 1007.3 |
| 20260905022832 | 83 | 124 | 1.0 | 2.0 | 0.00 | 0.04 | 0.04 | 78 | 1007.3 |
| 20260905022731 | 83 | 124 | 0.0 | 2.0 | 0.00 | 0.04 | 0.04 | 78 | 1007.3 |
| 20260905022630 | 83 | 114 | 0.0 | 0.0 | 0.00 | 0.04 | 0.04 | 78 | 1007.2 |
| 20260905022531 | 83 | 114 | 0.0 | 0.0 | 0.00 | 0.04 | 0.04 | 79 | 1007.3 |
| 20260905022431 | 83 | 110 | 0.0 | 0.0 | 0.00 | 0.04 | 0.04 | 79 | 1007.2 |
| 20260905022332 | 83 | 110 | 0.0 | 0.0 | 0.00 | 0.04 | 0.04 | 79 | 1007.2 |
| 20260905022232 | 83 | 110 | 0.0 | 0.0 | 0.00 | 0.04 | 0.04 | 79 | 1007.2 |
| 20260905022130 | 83 | 110 | 0.0 | 0.0 | 0.00 | 0.04 | 0.04 | 79 | 1007.1 |
| 20260905022031 | 83 | 110 | 0.0 | 0.0 | 0.00 | 0.04 | 0.04 | 79 | 1007.1 |
| 20260905021931 | 83 | 110 | 0.0 | 0.0 | 0.00 | 0.04 | 0.04 | 79 | 1007.0 |
| 20260905021831 | 83 | 110 | 0.0 | 0.0 | 0.00 | 0.04 | 0.04 | 79 | 1007.1 |
| 20260905021728 | 83 | 110 | 0.0 | 0.0 | 0.00 | 0.04 | 0.04 | 79 | 1007.1 |
| 20260905021630 | 83 | 110 | 0.0 | 0.0 | 0.00 | 0.04 | 0.04 | 79 | 1007.0 |
| 20260905021529 | 83 | 110 | 0.0 | 0.0 | 0.00 | 0.04 | 0.04 | 79 | 1007.0 |
| 20260905021429 | 83 | 110 | 0.0 | 0.0 | 0.00 | 0.04 | 0.04 | 79 | 1007.0 |
| 20260905021329 | 83 | 110 | 0.0 | 0.0 | 0.00 | 0.04 | 0.04 | 79 | 1007.1 |
| 20260905021228 | 83 | 110 | 0.0 | 0.0 | 0.00 | 0.04 | 0.04 | 79 | 1007.0 |
| 20260905021128 | 83 | 110 | 0.0 | 0.0 | 0.00 | 0.04 | 0.04 | 79 | 1007.0 |
| 20260905021028 | 83 | 110 | 0.0 | 0.0 | 0.00 | 0.04 | 0.04 | 78 | 1007.1 |
| 20260905020929 | 83 | 110 | 0.0 | 0.0 | 0.00 | 0.04 | 0.04 | 78 | 1007.1 |
| 20260905020827 | 83 | 110 | 0.0 | 0.0 | 0.00 | 0.04 | 0.04 | 78 | 1007.1 |
| 20260905020728 | 83 | 110 | 0.0 | 0.0 | 0.00 | 0.04 | 0.04 | 78 | 1007.1 |
| 20260905020627 | 83 | 110 | 0.0 | 1.0 | 0.00 | 0.04 | 0.04 | 78 | 1007.0 |
| 20260905020527 | 83 | 110 | 0.0 | 1.0 | 0.00 | 0.04 | 0.04 | 78 | 1007.0 |
| 20260905020427 | 83 | 110 | 0.0 | 1.0 | 0.00 | 0.04 | 0.04 | 78 | 1007.0 |
| 20260905020329 | 83 | 110 | 0.0 | 2.0 | 0.00 | 0.04 | 0.04 | 77 | 1006.9 |
| 20260905020229 | 83 | 110 | 0.0 | 2.0 | 0.00 | 0.04 | 0.04 | 77 | 1006.9 |
| 20260905020129 | 83 | 110 | 0.0 | 3.0 | 0.00 | 0.04 | 0.04 | 78 | 1007.0 |
| 20260905020028 | 83 | 110 | 0.0 | 3.0 | 0.00 | 0.04 | 0.04 | 78 | 1006.9 |
| 20260905015928 | 83 | 110 | 0.0 | 3.0 | 0.00 | 0.04 | 0.04 | 77 | 1006.9 |
| 20260905015827 | 83 | 110 | 0.0 | 4.0 | 0.00 | 0.04 | 0.04 | 77 | 1006.8 |
| 20260905015728 | 83 | 110 | 1.0 | 4.0 | 0.00 | 0.04 | 0.04 | 77 | 1006.9 |
| 20260905015629 | 83 | 110 | 1.0 | 4.0 | 0.00 | 0.04 | 0.04 | 77 | 1006.9 |
| 20260905015528 | 83 | 110 | 1.0 | 4.0 | 0.00 | 0.04 | 0.04 | 77 | 1006.8 |
| 20260905015429 | 83 | 110 | 2.0 | 4.0 | 0.00 | 0.04 | 0.04 | 77 | 1006.8 |
| 20260905015329 | 83 | 110 | 2.0 | 4.0 | 0.00 | 0.04 | 0.04 | 77 | 1006.9 |
| 20260905015228 | 83 | 110 | 2.0 | 4.0 | 0.00 | 0.04 | 0.04 | 77 | 1006.9 |
| 20260905015127 | 83 | 109 | 2.0 | 4.0 | 0.00 | 0.04 | 0.04 | 76 | 1006.8 |
| 20260905015029 | 83 | 109 | 3.0 | 4.0 | 0.00 | 0.04 | 0.04 | 76 | 1006.7 |
| 20260905014928 | 83 | 107 | 3.0 | 4.0 | 0.00 | 0.04 | 0.04 | 76 | 1006.8 |
| 20260905014827 | 83 | 109 | 2.0 | 5.0 | 0.00 | 0.04 | 0.04 | 76 | 1006.8 |
| 20260905014728 | 83 | 111 | 2.0 | 5.0 | 0.00 | 0.04 | 0.04 | 76 | 1006.8 |
| 20260905014627 | 83 | 109 | 2.0 | 5.0 | 0.00 | 0.04 | 0.04 | 76 | 1006.7 |
| 20260905014528 | 83 | 109 | 2.0 | 5.0 | 0.00 | 0.04 | 0.04 | 76 | 1006.7 |
| 20260905014427 | 83 | 110 | 2.0 | 5.0 | 0.00 | 0.04 | 0.04 | 76 | 1006.7 |
| 20260905014329 | 83 | 110 | 2.0 | 5.0 | 0.00 | 0.04 | 0.04 | 76 | 1006.7 |
| 20260905014226 | 83 | 110 | 1.0 | 5.0 | 0.00 | 0.04 | 0.04 | 76 | 1006.7 |
| 20260905014127 | 83 | 109 | 2.0 | 5.0 | 0.00 | 0.04 | 0.04 | 76 | 1006.8 |
| 20260905014028 | 83 | 110 | 3.0 | 5.0 | 0.00 | 0.04 | 0.04 | 76 | 1006.7 |
| 20260905013928 | 83 | 109 | 4.0 | 5.0 | 0.00 | 0.04 | 0.04 | 76 | 1006.8 |
| 20260905013828 | 83 | 106 | 4.0 | 7.0 | 0.00 | 0.04 | 0.04 | 76 | 1006.7 |
| 20260905013729 | 83 | 109 | 4.0 | 7.0 | 0.00 | 0.04 | 0.04 | 76 | 1006.8 |
| 20260905013628 | 83 | 109 | 4.0 | 7.0 | 0.00 | 0.04 | 0.04 | 76 | 1006.7 |
| 20260905013527 | 83 | 103 | 4.0 | 7.0 | 0.00 | 0.04 | 0.04 | 76 | 1006.8 |
| 20260905013429 | 83 | 83 | 4.0 | 7.0 | 0.00 | 0.04 | 0.04 | 76 | 1006.7 |
| 20260905013328 | 83 | 83 | 4.0 | 7.0 | 0.00 | 0.04 | 0.04 | 76 | 1006.7 |
| 20260905013228 | 83 | 83 | 4.0 | 7.0 | 0.00 | 0.04 | 0.04 | 76 | 1006.7 |
| 20260905013126 | 83 | 85 | 4.0 | 7.0 | 0.00 | 0.04 | 0.04 | 76 | 1006.6 |
| 20260905013027 | 83 | 104 | 4.0 | 7.0 | 0.00 | 0.04 | 0.04 | 76 | 1006.7 |
| 20260905012928 | 83 | 85 | 4.0 | 7.0 | 0.00 | 0.04 | 0.04 | 76 | 1006.6 |
| 20260905012828 | 83 | 72 | 4.0 | 6.0 | 0.00 | 0.04 | 0.04 | 76 | 1006.6 |
| 20260905012726 | 83 | 89 | 4.0 | 6.0 | 0.00 | 0.04 | 0.04 | 76 | 1006.5 |
| 20260905012628 | 83 | 90 | 5.0 | 6.0 | 0.00 | 0.04 | 0.04 | 76 | 1006.6 |
| 20260905012527 | 83 | 93 | 5.0 | 6.0 | 0.00 | 0.04 | 0.04 | 76 | 1006.6 |
| 20260905012428 | 83 | 78 | 4.0 | 6.0 | 0.00 | 0.04 | 0.04 | 76 | 1006.6 |
| 20260905012328 | 83 | 96 | 4.0 | 6.0 | 0.00 | 0.04 | 0.04 | 76 | 1006.6 |
| 20260905012227 | 83 | 82 | 4.0 | 6.0 | 0.00 | 0.04 | 0.04 | 76 | 1006.5 |
| 20260905012128 | 83 | 66 | 3.0 | 6.0 | 0.00 | 0.04 | 0.04 | 76 | 1006.5 |
| 20260905012027 | 83 | 92 | 2.0 | 7.0 | 0.00 | 0.04 | 0.04 | 75 | 1006.4 |
| 20260905011928 | 83 | 93 | 3.0 | 7.0 | 0.00 | 0.04 | 0.04 | 75 | 1006.4 |
| 20260905011827 | 83 | 96 | 3.0 | 7.0 | 0.00 | 0.04 | 0.04 | 75 | 1006.4 |
| 20260905011727 | 83 | 97 | 4.0 | 9.0 | 0.00 | 0.04 | 0.04 | 73 | 1006.4 |
| 20260905011627 | 83 | 89 | 5.0 | 9.0 | 0.00 | 0.04 | 0.04 | 73 | 1006.4 |
| 20260905011526 | 84 | 106 | 5.0 | 9.0 | 0.00 | 0.04 | 0.04 | 73 | 1006.5 |
| 20260905011429 | 84 | 83 | 6.0 | 9.0 | 0.00 | 0.04 | 0.04 | 73 | 1006.5 |
| 20260905011328 | 84 | 83 | 6.0 | 11.0 | 0.00 | 0.04 | 0.04 | 73 | 1006.5 |
| 20260905011228 | 84 | 94 | 6.0 | 14.0 | 0.00 | 0.04 | 0.04 | 73 | 1006.4 |
| 20260905011126 | 84 | 87 | 6.0 | 14.0 | 0.00 | 0.04 | 0.04 | 73 | 1006.4 |
| 20260905011027 | 84 | 92 | 5.0 | 14.0 | 0.00 | 0.04 | 0.04 | 73 | 1006.5 |
| 20260905010927 | 85 | 109 | 6.0 | 14.0 | 0.00 | 0.04 | 0.04 | 73 | 1006.5 |
| 20260905010828 | 85 | 109 | 6.0 | 14.0 | 0.00 | 0.04 | 0.04 | 72 | 1006.5 |
| 20260905010728 | 85 | 90 | 5.0 | 14.0 | 0.00 | 0.04 | 0.04 | 72 | 1006.5 |
| 20260905010626 | 85 | 140 | 6.0 | 14.0 | 0.00 | 0.04 | 0.04 | 72 | 1006.5 |
| 20260905010529 | 86 | 99 | 7.0 | 14.0 | 0.00 | 0.04 | 0.04 | 72 | 1006.5 |
| 20260905010428 | 86 | 82 | 9.0 | 14.0 | 0.00 | 0.04 | 0.04 | 72 | 1006.5 |
| 20260905010327 | 86 | 93 | 9.0 | 14.0 | 0.00 | 0.04 | 0.04 | 72 | 1006.5 |
| 20260905010226 | 87 | 83 | 7.0 | 11.0 | 0.00 | 0.04 | 0.04 | 72 | 1006.5 |
| 20260905010128 | 87 | 94 | 6.0 | 11.0 | 0.00 | 0.04 | 0.04 | 72 | 1006.4 |
| 20260905010027 | 87 | 92 | 6.0 | 10.0 | 0.00 | 0.04 | 0.04 | 72 | 1006.5 |
| 20260905005927 | 87 | 92 | 8.0 | 10.0 | 0.00 | 0.04 | 0.04 | 71 | 1006.5 |
| 20260905005825 | 87 | 89 | 7.0 | 10.0 | 0.00 | 0.04 | 0.04 | 71 | 1006.4 |
| 20260905005727 | 87 | 83 | 5.0 | 9.0 | 0.00 | 0.04 | 0.04 | 71 | 1006.5 |
| 20260905005626 | 87 | 94 | 5.0 | 9.0 | 0.00 | 0.04 | 0.04 | 71 | 1006.4 |
| 20260905005527 | 88 | 62 | 4.0 | 9.0 | 0.00 | 0.04 | 0.04 | 71 | 1006.4 |
| 20260905005427 | 88 | 85 | 2.0 | 9.0 | 0.00 | 0.04 | 0.04 | 71 | 1006.4 |
| 20260905005325 | 88 | 90 | 2.0 | 9.0 | 0.00 | 0.04 | 0.04 | 71 | 1006.3 |
| 20260905005227 | 88 | 93 | 3.0 | 9.0 | 0.00 | 0.04 | 0.04 | 71 | 1006.3 |
| 20260905005127 | 88 | 96 | 5.0 | 9.0 | 0.00 | 0.04 | 0.04 | 71 | 1006.4 |
| 20260905005025 | 88 | 97 | 6.0 | 9.0 | 0.00 | 0.04 | 0.04 | 71 | 1006.4 |
| 20260905004926 | 88 | 94 | 7.0 | 9.0 | 0.00 | 0.04 | 0.04 | 72 | 1006.5 |
| 20260905004827 | 88 | 104 | 5.0 | 7.0 | 0.00 | 0.04 | 0.04 | 71 | 1006.5 |
| 20260905004726 | 88 | 114 | 5.0 | 6.0 | 0.00 | 0.04 | 0.04 | 71 | 1006.4 |
| 20260905004626 | 88 | 109 | 5.0 | 6.0 | 0.00 | 0.04 | 0.04 | 71 | 1006.3 |
| 20260905004527 | 88 | 99 | 5.0 | 6.0 | 0.00 | 0.04 | 0.04 | 71 | 1006.4 |
| 20260905004427 | 88 | 107 | 4.0 | 5.0 | 0.00 | 0.04 | 0.04 | 71 | 1006.4 |
| 20260905004326 | 88 | 110 | 4.0 | 5.0 | 0.00 | 0.04 | 0.04 | 71 | 1006.3 |
| 20260905004225 | 88 | 109 | 3.0 | 5.0 | 0.00 | 0.04 | 0.04 | 71 | 1006.4 |
| 20260905004127 | 88 | 138 | 3.0 | 5.0 | 0.00 | 0.04 | 0.04 | 72 | 1006.2 |
| 20260905004027 | 89 | 110 | 4.0 | 5.0 | 0.00 | 0.04 | 0.04 | 71 | 1006.3 |
| 20260905003926 | 89 | 114 | 4.0 | 5.0 | 0.00 | 0.04 | 0.04 | 71 | 1006.3 |
| 20260905003827 | 89 | 144 | 4.0 | 5.0 | 0.00 | 0.04 | 0.04 | 71 | 1006.3 |
| 20260905003726 | 89 | 120 | 4.0 | 5.0 | 0.00 | 0.04 | 0.04 | 71 | 1006.3 |
| 20260905003626 | 89 | 133 | 3.0 | 9.0 | 0.00 | 0.04 | 0.04 | 71 | 1006.3 |
| 20260905003526 | 89 | 128 | 4.0 | 9.0 | 0.00 | 0.04 | 0.04 | 70 | 1006.2 |
| 20260905003426 | 89 | 127 | 4.0 | 9.0 | 0.00 | 0.04 | 0.04 | 70 | 1006.3 |
| 20260905003326 | 89 | 128 | 5.0 | 9.0 | 0.00 | 0.04 | 0.04 | 70 | 1006.3 |
| 20260905003224 | 89 | 128 | 5.0 | 9.0 | 0.00 | 0.04 | 0.04 | 70 | 1006.3 |
| 20260905003124 | 89 | 128 | 5.0 | 9.0 | 0.00 | 0.04 | 0.04 | 70 | 1006.2 |
| 20260905003026 | 89 | 128 | 5.0 | 9.0 | 0.00 | 0.04 | 0.04 | 70 | 1006.2 |
| 20260905002925 | 89 | 128 | 5.0 | 9.0 | 0.00 | 0.04 | 0.04 | 70 | 1006.2 |
| 20260905002825 | 89 | 128 | 5.0 | 9.0 | 0.00 | 0.04 | 0.04 | 70 | 1006.2 |
| 20260905002723 | 89 | 110 | 5.0 | 9.0 | 0.00 | 0.04 | 0.04 | 70 | 1006.1 |
| 20260905002625 | 89 | 102 | 5.0 | 9.0 | 0.00 | 0.04 | 0.04 | 70 | 1006.1 |
| 20260905002523 | 89 | 106 | 5.0 | 9.0 | 0.00 | 0.04 | 0.04 | 69 | 1006.0 |
| 20260905002425 | 89 | 93 | 4.0 | 9.0 | 0.00 | 0.04 | 0.04 | 69 | 1006.0 |
| 20260905002324 | 89 | 99 | 4.0 | 9.0 | 0.00 | 0.04 | 0.04 | 69 | 1006.0 |
| 20260905002225 | 90 | 113 | 4.0 | 9.0 | 0.00 | 0.04 | 0.04 | 69 | 1006.0 |
| 20260905002123 | 90 | 111 | 4.0 | 9.0 | 0.00 | 0.04 | 0.04 | 68 | 1006.0 |
| 20260905002024 | 90 | 113 | 4.0 | 9.0 | 0.00 | 0.04 | 0.04 | 68 | 1006.0 |
| 20260905001925 | 90 | 130 | 5.0 | 9.0 | 0.00 | 0.04 | 0.04 | 68 | 1005.9 |
| 20260905001825 | 90 | 103 | 7.0 | 9.0 | 0.00 | 0.04 | 0.04 | 68 | 1006.0 |
| 20260905001725 | 90 | 111 | 6.0 | 9.0 | 0.00 | 0.04 | 0.04 | 68 | 1005.9 |
| 20260905001624 | 90 | 104 | 5.0 | 6.0 | 0.00 | 0.04 | 0.04 | 67 | 1005.9 |
| 20260905001524 | 90 | 103 | 5.0 | 6.0 | 0.00 | 0.04 | 0.04 | 67 | 1006.0 |
| 20260905001425 | 90 | 93 | 5.0 | 6.0 | 0.00 | 0.04 | 0.04 | 66 | 1006.0 |
| 20260905001326 | 91 | 133 | 0.0 | 0.0 | 0.00 | 0.04 | 0.04 | 66 | 1006.0 |
| 20260905001225 | 91 | 133 | 0.0 | 0.0 | 0.00 | 0.04 | 0.04 | 66 | 1005.9 |
| 20260905001126 | 91 | 133 | 0.0 | 0.0 | 0.00 | 0.04 | 0.04 | 66 | 1005.9 |
| 20260905001024 | 91 | 133 | 0.0 | 2.0 | 0.00 | 0.04 | 0.04 | 66 | 1005.9 |
| 20260905000924 | 91 | 133 | 0.0 | 3.0 | 0.00 | 0.04 | 0.04 | 67 | 1005.8 |
| 20260905000826 | 91 | 120 | 0.0 | 5.0 | 0.00 | 0.04 | 0.04 | 67 | 1005.9 |
| 20260905000723 | 91 | 117 | 0.0 | 5.0 | 0.00 | 0.04 | 0.04 | 66 | 1005.8 |
| 20260905000625 | 91 | 116 | 0.0 | 5.0 | 0.00 | 0.04 | 0.04 | 66 | 1005.8 |
| 20260905000523 | 91 | 117 | 0.0 | 5.0 | 0.00 | 0.04 | 0.04 | 66 | 1005.8 |
| 20260905000425 | 91 | 131 | 2.0 | 5.0 | 0.00 | 0.04 | 0.04 | 66 | 1005.8 |
| 20260905000325 | 91 | 131 | 2.0 | 5.0 | 0.00 | 0.04 | 0.04 | 66 | 1005.8 |
| 20260905000226 | 91 | 131 | 2.0 | 5.0 | 0.00 | 0.04 | 0.04 | 66 | 1005.7 |
| 20260905000125 | 91 | 131 | 2.0 | 5.0 | 0.00 | 0.04 | 0.04 | 66 | 1005.8 |
| 20260905000023 | 91 | 131 | 3.0 | 5.0 | 0.00 | 0.04 | 0.04 | 66 | 1005.8 |
| 20260904235923 | 91 | 106 | 4.0 | 5.0 | 0.00 | 0.04 | 0.04 | 65 | 1005.8 |
| 20260904235823 | 91 | 113 | 3.0 | 5.0 | 0.00 | 0.04 | 0.04 | 65 | 1005.7 |
| 20260904235722 | 91 | 106 | 3.0 | 5.0 | 0.00 | 0.04 | 0.04 | 65 | 1005.7 |
| 20260904235623 | 91 | 144 | 2.0 | 4.0 | 0.00 | 0.04 | 0.04 | 65 | 1005.8 |
| 20260904235522 | 91 | 161 | 2.0 | 4.0 | 0.00 | 0.04 | 0.04 | 65 | 1005.7 |
| 20260904235423 | 91 | 140 | 3.0 | 4.0 | 0.00 | 0.04 | 0.04 | 66 | 1005.8 |
| 20260904235324 | 91 | 162 | 2.0 | 4.0 | 0.00 | 0.04 | 0.04 | 66 | 1005.7 |
| 20260904235222 | 91 | 171 | 2.0 | 4.0 | 0.00 | 0.04 | 0.04 | 66 | 1005.8 |
| 20260904235124 | 91 | 131 | 0.0 | 2.0 | 0.00 | 0.04 | 0.04 | 66 | 1005.8 |
| 20260904235022 | 91 | 118 | 0.0 | 0.0 | 0.00 | 0.04 | 0.04 | 66 | 1005.8 |
| 20260904234922 | 91 | 179 | 0.0 | 0.0 | 0.00 | 0.04 | 0.04 | 65 | 1005.9 |
| 20260904234822 | 91 | 185 | 0.0 | 0.0 | 0.00 | 0.04 | 0.04 | 66 | 1005.8 |
| 20260904234723 | 91 | 183 | 0.0 | 1.0 | 0.00 | 0.04 | 0.04 | 65 | 1005.8 |
| 20260904234624 | 91 | 200 | 0.0 | 1.0 | 0.00 | 0.04 | 0.04 | 66 | 1005.7 |
| 20260904234522 | 91 | 199 | 0.0 | 1.0 | 0.00 | 0.04 | 0.04 | 66 | 1005.7 |
| 20260904234424 | 91 | 199 | 0.0 | 1.0 | 0.00 | 0.04 | 0.04 | 66 | 1005.8 |
| 20260904234323 | 91 | 199 | 0.0 | 4.0 | 0.00 | 0.04 | 0.04 | 66 | 1005.8 |
| 20260904234224 | 91 | 199 | 0.0 | 4.0 | 0.00 | 0.04 | 0.04 | 65 | 1005.7 |
| 20260904234123 | 91 | 199 | 0.0 | 4.0 | 0.00 | 0.04 | 0.04 | 65 | 1005.8 |
| 20260904234024 | 91 | 199 | 0.0 | 4.0 | 0.00 | 0.04 | 0.04 | 65 | 1005.8 |
| 20260904233924 | 91 | 199 | 0.0 | 4.0 | 0.00 | 0.04 | 0.04 | 65 | 1005.8 |
| 20260904233822 | 91 | 199 | 0.0 | 4.0 | 0.00 | 0.04 | 0.04 | 66 | 1005.9 |
| 20260904233723 | 91 | 199 | 0.0 | 4.0 | 0.00 | 0.04 | 0.04 | 66 | 1005.9 |
| 20260904233622 | 91 | 199 | 0.0 | 4.0 | 0.00 | 0.04 | 0.04 | 65 | 1005.8 |
| 20260904233522 | 91 | 199 | 1.0 | 4.0 | 0.00 | 0.04 | 0.04 | 64 | 1005.9 |
| 20260904233422 | 91 | 199 | 2.0 | 4.0 | 0.00 | 0.04 | 0.04 | 64 | 1005.8 |
| 20260904233324 | 91 | 180 | 1.0 | 4.0 | 0.00 | 0.04 | 0.04 | 64 | 1005.8 |
| 20260904233224 | 91 | 161 | 0.0 | 3.0 | 0.00 | 0.04 | 0.04 | 64 | 1005.8 |
| 20260904233123 | 91 | 161 | 1.0 | 3.0 | 0.00 | 0.04 | 0.04 | 65 | 1005.8 |
| 20260904233024 | 91 | 161 | 2.0 | 3.0 | 0.00 | 0.04 | 0.04 | 65 | 1005.9 |
| 20260904232922 | 91 | 161 | 2.0 | 3.0 | 0.00 | 0.04 | 0.04 | 65 | 1005.8 |
| 20260904232823 | 91 | 162 | 1.0 | 3.0 | 0.00 | 0.04 | 0.04 | 65 | 1005.8 |
| 20260904232724 | 91 | 162 | 1.0 | 3.0 | 0.00 | 0.04 | 0.04 | 65 | 1005.8 |
| 20260904232623 | 91 | 162 | 1.0 | 3.0 | 0.00 | 0.04 | 0.04 | 64 | 1005.9 |
| 20260904232524 | 91 | 162 | 0.0 | 3.0 | 0.00 | 0.04 | 0.04 | 65 | 1005.8 |
| 20260904232424 | 91 | 162 | 0.0 | 3.0 | 0.00 | 0.04 | 0.04 | 65 | 1005.7 |
| 20260904232324 | 91 | 162 | 1.0 | 6.0 | 0.00 | 0.04 | 0.04 | 65 | 1005.8 |
| 20260904232228 | 91 | 162 | 2.0 | 6.0 | 0.00 | 0.04 | 0.04 | 64 | 1005.8 |
| 20260904232124 | 91 | 162 | 2.0 | 6.0 | 0.00 | 0.04 | 0.04 | 65 | 1005.8 |
| 20260904232021 | 91 | 169 | 1.0 | 6.0 | 0.00 | 0.04 | 0.04 | 66 | 1005.7 |
| 20260904231924 | 91 | 192 | 0.0 | 6.0 | 0.00 | 0.04 | 0.04 | 65 | 1005.8 |
| 20260904231823 | 91 | 192 | 0.0 | 6.0 | 0.00 | 0.04 | 0.04 | 65 | 1005.8 |
| 20260904231722 | 91 | 192 | 1.0 | 6.0 | 0.00 | 0.04 | 0.04 | 65 | 1005.7 |
| 20260904231623 | 91 | 192 | 1.0 | 6.0 | 0.00 | 0.04 | 0.04 | 65 | 1005.7 |
| 20260904231522 | 91 | 195 | 2.0 | 6.0 | 0.00 | 0.04 | 0.04 | 64 | 1005.7 |
| 20260904231421 | 91 | 199 | 3.0 | 6.0 | 0.00 | 0.04 | 0.04 | 65 | 1005.8 |
| 20260904231322 | 91 | 121 | 3.0 | 5.0 | 0.00 | 0.04 | 0.04 | 65 | 1005.7 |
| 20260904231222 | 91 | 107 | 1.0 | 4.0 | 0.00 | 0.04 | 0.04 | 65 | 1005.7 |
| 20260904231123 | 91 | 128 | 2.0 | 3.0 | 0.00 | 0.04 | 0.04 | 65 | 1005.7 |
| 20260904231018 | 91 | 128 | 2.0 | 3.0 | 0.00 | 0.04 | 0.04 | 65 | 1005.7 |
| 20260904230915 | 91 | 130 | 2.0 | 3.0 | 0.00 | 0.04 | 0.04 | 65 | 1005.7 |
| 20260904230806 | 91 | 131 | 1.0 | 3.0 | 0.00 | 0.04 | 0.04 | 65 | 1005.7 |
| 20260904230706 | 91 | 144 | 0.0 | 3.0 | 0.00 | 0.04 | 0.04 | 65 | 1005.7 |
| 20260904230603 | 91 | 164 | 0.0 | 3.0 | 0.00 | 0.04 | 0.04 | 64 | 1005.7 |
| 20260904230503 | 91 | 168 | 0.0 | 3.0 | 0.00 | 0.04 | 0.04 | 64 | 1005.8 |
| 20260904230403 | 91 | 168 | 0.0 | 3.0 | 0.00 | 0.04 | 0.04 | 64 | 1005.8 |
| 20260904230302 | 91 | 166 | 0.0 | 3.0 | 0.00 | 0.04 | 0.04 | 64 | 1005.8 |
| 20260904230203 | 91 | 166 | 0.0 | 4.0 | 0.00 | 0.04 | 0.04 | 64 | 1005.7 |
| 20260904230104 | 91 | 166 | 1.0 | 6.0 | 0.00 | 0.04 | 0.04 | 63 | 1005.8 |
| 20260904230003 | 91 | 168 | 1.0 | 6.0 | 0.00 | 0.04 | 0.04 | 63 | 1005.8 |
| 20260904225902 | 91 | 166 | 2.0 | 6.0 | 0.00 | 0.04 | 0.04 | 63 | 1005.8 |
| 20260904225804 | 91 | 161 | 2.0 | 6.0 | 0.00 | 0.04 | 0.04 | 64 | 1005.8 |
| 20260904225704 | 91 | 128 | 1.0 | 6.0 | 0.00 | 0.04 | 0.04 | 64 | 1005.9 |
| 20260904225604 | 91 | 127 | 0.0 | 6.0 | 0.00 | 0.04 | 0.04 | 65 | 1005.9 |
| 20260904225502 | 91 | 127 | 1.0 | 6.0 | 0.00 | 0.04 | 0.04 | 65 | 1005.9 |
| 20260904225403 | 91 | 127 | 3.0 | 6.0 | 0.00 | 0.04 | 0.04 | 65 | 1005.9 |
| 20260904225306 | 91 | 124 | 4.0 | 6.0 | 0.00 | 0.04 | 0.04 | 64 | 1005.9 |
| 20260904225203 | 91 | 111 | 3.0 | 6.0 | 0.00 | 0.04 | 0.04 | 64 | 1005.9 |
| 20260904225104 | 92 | 110 | 0.0 | 4.0 | 0.00 | 0.04 | 0.04 | 63 | 1005.9 |
| 20260904225003 | 92 | 124 | 0.0 | 4.0 | 0.00 | 0.04 | 0.04 | 63 | 1005.9 |
| 20260904224859 | 92 | 124 | 0.0 | 4.0 | 0.00 | 0.04 | 0.04 | 63 | 1005.9 |
| 20260904224748 | 92 | 124 | 0.0 | 4.0 | 0.00 | 0.04 | 0.04 | 63 | 1005.9 |
| 20260904224641 | 92 | 124 | 0.0 | 4.0 | 0.00 | 0.04 | 0.04 | 62 | 1006.0 |
| 20260904224538 | 92 | 124 | 0.0 | 4.0 | 0.00 | 0.04 | 0.04 | 62 | 1005.9 |
| 20260904224431 | 92 | 124 | 0.0 | 4.0 | 0.00 | 0.04 | 0.04 | 62 | 1005.9 |
| 20260904224332 | 92 | 124 | 2.0 | 4.0 | 0.00 | 0.04 | 0.04 | 62 | 1005.9 |
| 20260904224231 | 92 | 124 | 2.0 | 6.0 | 0.00 | 0.04 | 0.04 | 62 | 1005.8 |
| 20260904224132 | 92 | 106 | 2.0 | 7.0 | 0.00 | 0.04 | 0.04 | 62 | 1005.9 |
| 20260904224033 | 92 | 100 | 2.0 | 7.0 | 0.00 | 0.04 | 0.04 | 62 | 1005.8 |
| 20260904223931 | 92 | 93 | 1.0 | 7.0 | 0.00 | 0.04 | 0.04 | 62 | 1005.8 |
| 20260904223831 | 92 | 92 | 0.0 | 7.0 | 0.00 | 0.04 | 0.04 | 62 | 1005.9 |
| 20260904223732 | 92 | 92 | 0.0 | 7.0 | 0.00 | 0.04 | 0.04 | 62 | 1005.9 |
| 20260904223632 | 92 | 90 | 1.0 | 7.0 | 0.00 | 0.04 | 0.04 | 61 | 1005.9 |
| 20260904223533 | 92 | 90 | 4.0 | 7.0 | 0.00 | 0.04 | 0.04 | 61 | 1005.9 |
| 20260904223423 | 92 | 90 | 4.0 | 7.0 | 0.00 | 0.04 | 0.04 | 61 | 1005.9 |
| 20260904223321 | 92 | 85 | 4.0 | 7.0 | 0.00 | 0.04 | 0.04 | 63 | 1005.9 |
| 20260904223220 | 92 | 85 | 4.0 | 6.0 | 0.00 | 0.04 | 0.04 | 63 | 1005.9 |
| 20260904223120 | 92 | 107 | 4.0 | 5.0 | 0.00 | 0.04 | 0.04 | 62 | 1005.9 |
| 20260904223020 | 92 | 109 | 4.0 | 5.0 | 0.00 | 0.04 | 0.04 | 61 | 1006.0 |
| 20260904222921 | 92 | 104 | 2.0 | 5.0 | 0.00 | 0.04 | 0.04 | 61 | 1006.0 |
| 20260904222820 | 92 | 106 | 1.0 | 4.0 | 0.00 | 0.04 | 0.04 | 62 | 1006.0 |
| 20260904222720 | 92 | 106 | 2.0 | 5.0 | 0.00 | 0.04 | 0.04 | 64 | 1006.0 |
| 20260904222620 | 92 | 107 | 2.0 | 5.0 | 0.00 | 0.04 | 0.04 | 62 | 1006.0 |
| 20260904222521 | 92 | 117 | 2.0 | 5.0 | 0.00 | 0.04 | 0.04 | 62 | 1006.0 |
| 20260904222422 | 93 | 123 | 1.0 | 5.0 | 0.00 | 0.04 | 0.04 | 61 | 1006.0 |
| 20260904222322 | 93 | 123 | 1.0 | 5.0 | 0.00 | 0.04 | 0.04 | 61 | 1006.1 |
| 20260904222223 | 92 | 123 | 2.0 | 5.0 | 0.00 | 0.04 | 0.04 | 61 | 1005.9 |
| 20260904222122 | 92 | 123 | 2.0 | 5.0 | 0.00 | 0.04 | 0.04 | 61 | 1006.0 |
| 20260904222021 | 92 | 138 | 2.0 | 5.0 | 0.00 | 0.04 | 0.04 | 61 | 1006.1 |
| 20260904221922 | 92 | 103 | 3.0 | 5.0 | 0.00 | 0.04 | 0.04 | 61 | 1006.1 |
| 20260904221821 | 92 | 100 | 3.0 | 5.0 | 0.00 | 0.04 | 0.04 | 61 | 1006.1 |
| 20260904221722 | 92 | 133 | 2.0 | 5.0 | 0.00 | 0.04 | 0.04 | 62 | 1006.1 |
| 20260904221621 | 92 | 134 | 2.0 | 5.0 | 0.00 | 0.04 | 0.04 | 62 | 1006.0 |
| 20260904221521 | 92 | 137 | 2.0 | 5.0 | 0.00 | 0.04 | 0.04 | 63 | 1006.2 |
| 20260904221423 | 92 | 130 | 2.0 | 6.0 | 0.00 | 0.04 | 0.04 | 63 | 1006.2 |
| 20260904221320 | 92 | 154 | 1.0 | 6.0 | 0.00 | 0.04 | 0.04 | 63 | 1006.1 |
| 20260904221222 | 92 | 151 | 2.0 | 6.0 | 0.00 | 0.04 | 0.04 | 64 | 1006.2 |
| 20260904221122 | 92 | 120 | 3.0 | 6.0 | 0.00 | 0.04 | 0.04 | 63 | 1006.2 |
| 20260904221021 | 92 | 110 | 3.0 | 6.0 | 0.00 | 0.04 | 0.04 | 65 | 1006.2 |
| 20260904220922 | 92 | 117 | 3.0 | 6.0 | 0.00 | 0.04 | 0.04 | 63 | 1006.2 |
| 20260904220820 | 92 | 127 | 2.0 | 6.0 | 0.00 | 0.04 | 0.04 | 63 | 1006.2 |
| 20260904220723 | 92 | 128 | 2.0 | 6.0 | 0.00 | 0.04 | 0.04 | 63 | 1006.2 |
| 20260904220621 | 92 | 82 | 3.0 | 6.0 | 0.00 | 0.04 | 0.04 | 63 | 1006.2 |
| 20260904220522 | 92 | 83 | 5.0 | 6.0 | 0.00 | 0.04 | 0.04 | 62 | 1006.2 |
| 20260904220419 | 92 | 100 | 5.0 | 6.0 | 0.00 | 0.04 | 0.04 | 63 | 1006.2 |
| 20260904220322 | 92 | 86 | 5.0 | 6.0 | 0.00 | 0.04 | 0.04 | 63 | 1006.2 |
| 20260904220223 | 92 | 109 | 2.0 | 7.0 | 0.00 | 0.04 | 0.04 | 64 | 1006.1 |
| 20260904220122 | 92 | 90 | 0.0 | 7.0 | 0.00 | 0.04 | 0.04 | 64 | 1006.2 |
| 20260904220022 | 92 | 52 | 0.0 | 7.0 | 0.00 | 0.04 | 0.04 | 63 | 1006.1 |
| 20260904215922 | 92 | 54 | 0.0 | 7.0 | 0.00 | 0.04 | 0.04 | 64 | 1006.1 |
| 20260904215822 | 91 | 54 | 0.0 | 7.0 | 0.00 | 0.04 | 0.04 | 64 | 1006.1 |
| 20260904215719 | 91 | 54 | 0.0 | 7.0 | 0.00 | 0.04 | 0.04 | 64 | 1006.2 |
| 20260904215620 | 91 | 54 | 2.0 | 7.0 | 0.00 | 0.04 | 0.04 | 63 | 1006.2 |
| 20260904215521 | 91 | 54 | 4.0 | 7.0 | 0.00 | 0.04 | 0.04 | 63 | 1006.2 |
| 20260904215422 | 91 | 55 | 5.0 | 7.0 | 0.00 | 0.04 | 0.04 | 63 | 1006.2 |
| 20260904215322 | 91 | 59 | 4.0 | 7.0 | 0.00 | 0.04 | 0.04 | 63 | 1006.2 |
| 20260904215220 | 91 | 65 | 3.0 | 6.0 | 0.00 | 0.04 | 0.04 | 63 | 1006.2 |
| 20260904215121 | 91 | 56 | 3.0 | 6.0 | 0.00 | 0.04 | 0.04 | 62 | 1006.2 |
| 20260904215019 | 91 | 58 | 4.0 | 6.0 | 0.00 | 0.04 | 0.04 | 62 | 1006.3 |
| 20260904214920 | 92 | 92 | 3.0 | 6.0 | 0.00 | 0.04 | 0.04 | 62 | 1006.2 |
| 20260904214820 | 92 | 110 | 3.0 | 6.0 | 0.00 | 0.04 | 0.04 | 62 | 1006.1 |
| 20260904214720 | 92 | 86 | 3.0 | 6.0 | 0.00 | 0.04 | 0.04 | 62 | 1006.2 |
| 20260904214620 | 92 | 134 | 1.0 | 4.0 | 0.00 | 0.04 | 0.04 | 64 | 1006.2 |
| 20260904214519 | 91 | 110 | 2.0 | 5.0 | 0.00 | 0.04 | 0.04 | 64 | 1006.2 |
| 20260904214420 | 91 | 96 | 3.0 | 5.0 | 0.00 | 0.04 | 0.04 | 64 | 1006.2 |
| 20260904214319 | 92 | 109 | 2.0 | 5.0 | 0.00 | 0.04 | 0.04 | 64 | 1006.2 |
| 20260904214221 | 91 | 151 | 1.0 | 5.0 | 0.00 | 0.04 | 0.04 | 64 | 1006.2 |
| 20260904214119 | 92 | 151 | 1.0 | 6.0 | 0.00 | 0.04 | 0.04 | 64 | 1006.2 |
| 20260904214019 | 92 | 123 | 1.0 | 6.0 | 0.00 | 0.04 | 0.04 | 64 | 1006.2 |
| 20260904213921 | 91 | 123 | 2.0 | 6.0 | 0.00 | 0.04 | 0.04 | 65 | 1006.3 |
| 20260904213819 | 91 | 123 | 2.0 | 6.0 | 0.00 | 0.04 | 0.04 | 65 | 1006.3 |
| 20260904213719 | 91 | 117 | 3.0 | 6.0 | 0.00 | 0.04 | 0.04 | 63 | 1006.4 |
| 20260904213619 | 91 | 117 | 4.0 | 6.0 | 0.00 | 0.04 | 0.04 | 63 | 1006.4 |
| 20260904213520 | 91 | 157 | 4.0 | 6.0 | 0.00 | 0.04 | 0.04 | 65 | 1006.3 |
| 20260904213420 | 91 | 97 | 3.0 | 6.0 | 0.00 | 0.04 | 0.04 | 64 | 1006.3 |
| 20260904213319 | 91 | 99 | 4.0 | 6.0 | 0.00 | 0.04 | 0.04 | 64 | 1006.3 |
| 20260904213219 | 91 | 109 | 4.0 | 6.0 | 0.00 | 0.04 | 0.04 | 64 | 1006.3 |
| 20260904213119 | 91 | 96 | 3.0 | 6.0 | 0.00 | 0.04 | 0.04 | 65 | 1006.4 |
| 20260904213023 | 91 | 116 | 2.0 | 5.0 | 0.00 | 0.04 | 0.04 | 64 | 1006.4 |
| 20260904212920 | 91 | 109 | 2.0 | 4.0 | 0.00 | 0.04 | 0.04 | 63 | 1006.4 |
| 20260904212820 | 91 | 110 | 3.0 | 4.0 | 0.00 | 0.04 | 0.04 | 64 | 1006.4 |
| 20260904212720 | 91 | 109 | 3.0 | 4.0 | 0.00 | 0.05 | 0.04 | 64 | 1006.4 |
| 20260904212621 | 91 | 111 | 1.0 | 4.0 | 0.00 | 0.05 | 0.04 | 64 | 1006.4 |
| 20260904212521 | 91 | 141 | 0.0 | 3.0 | 0.00 | 0.05 | 0.04 | 64 | 1006.3 |
| 20260904212419 | 91 | 141 | 1.0 | 3.0 | 0.00 | 0.05 | 0.04 | 66 | 1006.3 |
| 20260904212319 | 91 | 141 | 2.0 | 4.0 | 0.00 | 0.05 | 0.04 | 64 | 1006.4 |
| 20260904212221 | 91 | 141 | 2.0 | 5.0 | 0.00 | 0.05 | 0.04 | 65 | 1006.4 |
| 20260904212120 | 91 | 148 | 2.0 | 5.0 | 0.00 | 0.05 | 0.04 | 67 | 1006.4 |
| 20260904212023 | 91 | 152 | 1.0 | 5.0 | 0.00 | 0.05 | 0.04 | 67 | 1006.4 |
| 20260904211919 | 91 | 106 | 1.0 | 5.0 | 0.00 | 0.05 | 0.04 | 67 | 1006.4 |
| 20260904211819 | 91 | 102 | 0.0 | 5.0 | 0.00 | 0.05 | 0.04 | 66 | 1006.4 |
| 20260904211719 | 90 | 102 | 0.0 | 5.0 | 0.00 | 0.05 | 0.04 | 66 | 1006.4 |
| 20260904211620 | 90 | 100 | 1.0 | 5.0 | 0.00 | 0.05 | 0.04 | 66 | 1006.5 |
| 20260904211520 | 90 | 100 | 3.0 | 5.0 | 0.00 | 0.05 | 0.04 | 66 | 1006.5 |
| 20260904211418 | 90 | 100 | 4.0 | 5.0 | 0.00 | 0.05 | 0.04 | 66 | 1006.4 |
| 20260904211318 | 91 | 100 | 3.0 | 5.0 | 0.00 | 0.05 | 0.04 | 67 | 1006.4 |
| 20260904211220 | 91 | 107 | 1.0 | 4.0 | 0.00 | 0.05 | 0.04 | 68 | 1006.4 |
| 20260904211118 | 90 | 113 | 0.0 | 5.0 | 0.00 | 0.05 | 0.04 | 67 | 1006.4 |
| 20260904211020 | 90 | 118 | 0.0 | 5.0 | 0.00 | 0.05 | 0.04 | 68 | 1006.4 |
| 20260904210920 | 90 | 120 | 0.0 | 5.0 | 0.00 | 0.05 | 0.04 | 67 | 1006.5 |
| 20260904210819 | 90 | 120 | 0.0 | 5.0 | 0.00 | 0.05 | 0.04 | 67 | 1006.4 |
| 20260904210720 | 90 | 120 | 0.0 | 5.0 | 0.00 | 0.05 | 0.04 | 67 | 1006.5 |
| 20260904210620 | 90 | 120 | 1.0 | 5.0 | 0.00 | 0.05 | 0.04 | 68 | 1006.6 |
| 20260904210520 | 90 | 120 | 2.0 | 5.0 | 0.00 | 0.05 | 0.04 | 68 | 1006.6 |
| 20260904210419 | 90 | 120 | 3.0 | 5.0 | 0.00 | 0.05 | 0.04 | 67 | 1006.6 |
| 20260904210319 | 90 | 120 | 4.0 | 5.0 | 0.00 | 0.05 | 0.04 | 68 | 1006.7 |
| 20260904210218 | 91 | 102 | 3.0 | 5.0 | 0.00 | 0.05 | 0.04 | 69 | 1006.7 |
| 20260904210118 | 90 | 99 | 2.0 | 3.0 | 0.00 | 0.05 | 0.04 | 69 | 1006.6 |
| 20260904210020 | 90 | 87 | 2.0 | 3.0 | 0.00 | 0.05 | 0.04 | 69 | 1006.7 |
| 20260904205921 | 90 | 149 | 2.0 | 3.0 | 0.00 | 0.06 | 0.04 | 69 | 1006.6 |
| 20260904205818 | 90 | 161 | 2.0 | 3.0 | 0.00 | 0.06 | 0.04 | 68 | 1006.6 |
| 20260904205718 | 90 | 162 | 2.0 | 3.0 | 0.00 | 0.06 | 0.04 | 68 | 1006.7 |
| 20260904205620 | 91 | 164 | 1.0 | 3.0 | 0.00 | 0.06 | 0.04 | 68 | 1006.7 |
| 20260904205518 | 91 | 165 | 1.0 | 3.0 | 0.00 | 0.06 | 0.04 | 69 | 1006.8 |
| 20260904205419 | 91 | 165 | 1.0 | 3.0 | 0.00 | 0.06 | 0.04 | 68 | 1006.7 |
| 20260904205318 | 91 | 165 | 2.0 | 4.0 | 0.00 | 0.06 | 0.04 | 69 | 1006.8 |
| 20260904205218 | 91 | 154 | 2.0 | 4.0 | 0.00 | 0.06 | 0.04 | 69 | 1006.8 |
| 20260904205120 | 90 | 142 | 2.0 | 6.0 | 0.00 | 0.06 | 0.04 | 70 | 1006.8 |
| 20260904205019 | 90 | 168 | 2.0 | 6.0 | 0.00 | 0.06 | 0.04 | 70 | 1006.8 |
| 20260904204918 | 90 | 141 | 2.0 | 6.0 | 0.00 | 0.06 | 0.04 | 70 | 1006.9 |
| 20260904204818 | 89 | 87 | 2.0 | 6.0 | 0.00 | 0.06 | 0.04 | 70 | 1006.9 |
| 20260904204719 | 89 | 78 | 1.0 | 6.0 | 0.00 | 0.06 | 0.04 | 70 | 1006.9 |
| 20260904204619 | 89 | 23 | 0.0 | 6.0 | 0.00 | 0.06 | 0.04 | 70 | 1006.9 |
| 20260904204518 | 89 | 18 | 1.0 | 6.0 | 0.00 | 0.06 | 0.04 | 71 | 1006.9 |
| 20260904204419 | 89 | 11 | 4.0 | 6.0 | 0.00 | 0.06 | 0.04 | 71 | 1006.9 |
| 20260904204320 | 89 | 11 | 3.0 | 6.0 | 0.00 | 0.06 | 0.04 | 71 | 1007.0 |
| 20260904204220 | 89 | 47 | 1.0 | 6.0 | 0.00 | 0.06 | 0.04 | 71 | 1007.1 |
| 20260904204119 | 89 | 111 | 0.0 | 6.0 | 0.00 | 0.06 | 0.04 | 71 | 1007.1 |
| 20260904204019 | 89 | 45 | 3.0 | 6.0 | 0.00 | 0.06 | 0.04 | 71 | 1007.0 |
| 20260904203924 | 89 | 45 | 4.0 | 6.0 | 0.00 | 0.06 | 0.04 | 71 | 1007.1 |
| 20260904203818 | 89 | 39 | 2.0 | 6.0 | 0.00 | 0.06 | 0.04 | 71 | 1007.1 |
| 20260904203719 | 89 | 82 | 0.0 | 4.0 | 0.00 | 0.06 | 0.04 | 71 | 1007.1 |
| 20260904203618 | 88 | 82 | 0.0 | 4.0 | 0.00 | 0.06 | 0.04 | 72 | 1007.1 |
| 20260904203518 | 88 | 82 | 0.0 | 5.0 | 0.00 | 0.06 | 0.04 | 72 | 1007.2 |
| 20260904203417 | 88 | 82 | 2.0 | 5.0 | 0.00 | 0.06 | 0.04 | 72 | 1007.2 |
| 20260904203319 | 88 | 82 | 3.0 | 5.0 | 0.00 | 0.06 | 0.04 | 75 | 1007.1 |
| 20260904203219 | 88 | 65 | 1.0 | 5.0 | 0.00 | 0.06 | 0.04 | 75 | 1007.2 |
| 20260904203119 | 87 | 41 | 0.0 | 5.0 | 0.00 | 0.06 | 0.04 | 75 | 1007.3 |
| 20260904203018 | 87 | 42 | 1.0 | 6.0 | 0.00 | 0.06 | 0.04 | 75 | 1007.3 |
| 20260904202919 | 87 | 42 | 2.0 | 6.0 | 0.00 | 0.06 | 0.04 | 76 | 1007.3 |
| 20260904202817 | 87 | 42 | 2.0 | 6.0 | 0.00 | 0.06 | 0.04 | 76 | 1007.3 |
| 20260904202717 | 87 | 93 | 3.0 | 6.0 | 0.00 | 0.06 | 0.04 | 76 | 1007.3 |
| 20260904202617 | 87 | 86 | 4.0 | 6.0 | 0.00 | 0.06 | 0.04 | 76 | 1007.3 |
| 20260904202519 | 87 | 55 | 3.0 | 6.0 | 0.01 | 0.06 | 0.04 | 77 | 1007.4 |
| 20260904202419 | 87 | 102 | 1.0 | 6.0 | 0.01 | 0.06 | 0.04 | 78 | 1007.4 |
| 20260904202318 | 87 | 102 | 2.0 | 6.0 | 0.01 | 0.06 | 0.04 | 78 | 1007.3 |
| 20260904202218 | 87 | 92 | 3.0 | 6.0 | 0.01 | 0.06 | 0.04 | 78 | 1007.3 |
| 20260904202119 | 87 | 48 | 4.0 | 6.0 | 0.01 | 0.06 | 0.04 | 78 | 1007.3 |
| 20260904202017 | 87 | 106 | 3.0 | 5.0 | 0.01 | 0.06 | 0.04 | 78 | 1007.3 |
| 20260904201919 | 86 | 120 | 2.0 | 5.0 | 0.01 | 0.06 | 0.04 | 78 | 1007.4 |
| 20260904201819 | 86 | 104 | 2.0 | 5.0 | 0.01 | 0.06 | 0.04 | 80 | 1007.4 |
| 20260904201717 | 86 | 94 | 2.0 | 5.0 | 0.01 | 0.06 | 0.04 | 80 | 1007.5 |
| 20260904201618 | 86 | 92 | 1.0 | 5.0 | 0.01 | 0.06 | 0.04 | 80 | 1007.4 |
| 20260904201518 | 86 | 89 | 3.0 | 5.0 | 0.01 | 0.06 | 0.04 | 80 | 1007.4 |
| 20260904201418 | 86 | 90 | 4.0 | 5.0 | 0.01 | 0.07 | 0.04 | 80 | 1007.5 |
| 20260904201318 | 86 | 97 | 2.0 | 5.0 | 0.01 | 0.07 | 0.04 | 80 | 1007.5 |
| 20260904201218 | 86 | 68 | 1.0 | 5.0 | 0.01 | 0.07 | 0.04 | 80 | 1007.5 |
| 20260904201118 | 86 | 66 | 2.0 | 5.0 | 0.01 | 0.07 | 0.04 | 81 | 1007.5 |
| 20260904201018 | 86 | 66 | 1.0 | 5.0 | 0.01 | 0.07 | 0.04 | 81 | 1007.6 |
| 20260904200918 | 85 | 96 | 1.0 | 6.0 | 0.01 | 0.07 | 0.04 | 81 | 1007.5 |
| 20260904200817 | 85 | 96 | 2.0 | 6.0 | 0.01 | 0.07 | 0.04 | 82 | 1007.6 |
| 20260904200720 | 85 | 94 | 1.0 | 6.0 | 0.01 | 0.07 | 0.04 | 80 | 1007.5 |
| 20260904200618 | 84 | 94 | 1.0 | 6.0 | 0.01 | 0.07 | 0.04 | 80 | 1007.5 |
| 20260904200519 | 84 | 94 | 2.0 | 6.0 | 0.01 | 0.07 | 0.04 | 80 | 1007.5 |
| 20260904200418 | 84 | 94 | 3.0 | 6.0 | 0.01 | 0.07 | 0.04 | 80 | 1007.4 |
| 20260904200317 | 84 | 97 | 4.0 | 6.0 | 0.01 | 0.07 | 0.04 | 80 | 1007.5 |
| 20260904200218 | 84 | 93 | 4.0 | 6.0 | 0.01 | 0.07 | 0.04 | 80 | 1007.5 |
| 20260904200119 | 84 | 86 | 4.0 | 6.0 | 0.01 | 0.07 | 0.04 | 80 | 1007.5 |
| 20260904200019 | 84 | 89 | 4.0 | 6.0 | 0.01 | 0.07 | 0.03 | 81 | 1007.6 |
| 20260904195917 | 84 | 99 | 3.0 | 5.0 | 0.01 | 0.07 | 0.04 | 81 | 1007.6 |
| 20260904195817 | 83 | 94 | 3.0 | 5.0 | 0.01 | 0.07 | 0.04 | 83 | 1007.6 |
| 20260904195718 | 83 | 93 | 4.0 | 5.0 | 0.01 | 0.07 | 0.04 | 82 | 1007.7 |
| 20260904195618 | 83 | 93 | 4.0 | 5.0 | 0.01 | 0.07 | 0.04 | 82 | 1007.6 |
| 20260904195518 | 83 | 92 | 2.0 | 5.0 | 0.01 | 0.07 | 0.04 | 82 | 1007.7 |
| 20260904195417 | 83 | 92 | 1.0 | 5.0 | 0.01 | 0.07 | 0.04 | 83 | 1007.6 |
| 20260904195319 | 83 | 92 | 0.0 | 5.0 | 0.01 | 0.07 | 0.04 | 83 | 1007.7 |
| 20260904195219 | 83 | 93 | 1.0 | 5.0 | 0.01 | 0.07 | 0.04 | 83 | 1007.7 |
| 20260904195119 | 82 | 93 | 2.0 | 6.0 | 0.01 | 0.07 | 0.04 | 82 | 1007.7 |
| 20260904195017 | 82 | 93 | 2.0 | 6.0 | 0.01 | 0.07 | 0.04 | 82 | 1007.7 |
| 20260904194917 | 82 | 96 | 3.0 | 6.0 | 0.01 | 0.07 | 0.04 | 82 | 1007.8 |
| 20260904194816 | 82 | 99 | 4.0 | 6.0 | 0.01 | 0.07 | 0.04 | 82 | 1007.9 |
| 20260904194716 | 82 | 89 | 4.0 | 6.0 | 0.01 | 0.07 | 0.04 | 83 | 1007.9 |
| 20260904194617 | 82 | 100 | 3.0 | 6.0 | 0.01 | 0.07 | 0.04 | 83 | 1008.0 |
| 20260904194518 | 82 | 89 | 4.0 | 6.0 | 0.01 | 0.07 | 0.04 | 83 | 1007.9 |
| 20260904194418 | 82 | 93 | 4.0 | 6.0 | 0.01 | 0.07 | 0.04 | 83 | 1007.9 |
| 20260904194319 | 82 | 103 | 4.0 | 6.0 | 0.01 | 0.07 | 0.04 | 83 | 1007.9 |
| 20260904194217 | 82 | 90 | 4.0 | 6.0 | 0.01 | 0.07 | 0.04 | 83 | 1007.9 |
| 20260904194118 | 82 | 103 | 2.0 | 3.0 | 0.01 | 0.07 | 0.04 | 83 | 1007.8 |
| 20260904194018 | 82 | 86 | 0.0 | 3.0 | 0.01 | 0.07 | 0.04 | 83 | 1007.8 |
| 20260904193917 | 82 | 86 | 0.0 | 3.0 | 0.01 | 0.07 | 0.04 | 83 | 1007.8 |
| 20260904193818 | 82 | 86 | 1.0 | 3.0 | 0.01 | 0.07 | 0.04 | 83 | 1007.8 |
| 20260904193718 | 82 | 86 | 1.0 | 3.0 | 0.01 | 0.07 | 0.04 | 83 | 1007.7 |
| 20260904193618 | 82 | 86 | 1.0 | 3.0 | 0.01 | 0.07 | 0.04 | 84 | 1007.7 |
| 20260904193516 | 82 | 87 | 1.0 | 3.0 | 0.01 | 0.07 | 0.04 | 84 | 1007.7 |
| 20260904193419 | 82 | 87 | 1.0 | 3.0 | 0.01 | 0.07 | 0.04 | 84 | 1007.7 |
| 20260904193316 | 82 | 87 | 0.0 | 3.0 | 0.01 | 0.07 | 0.04 | 84 | 1007.7 |
| 20260904193216 | 82 | 87 | 0.0 | 3.0 | 0.01 | 0.07 | 0.04 | 84 | 1007.8 |
| 20260904193117 | 82 | 87 | 1.0 | 3.0 | 0.01 | 0.07 | 0.04 | 84 | 1007.7 |
| 20260904193017 | 81 | 87 | 2.0 | 3.0 | 0.01 | 0.07 | 0.04 | 84 | 1007.7 |
| 20260904192918 | 82 | 87 | 2.0 | 3.0 | 0.01 | 0.07 | 0.04 | 84 | 1007.8 |
| 20260904192817 | 82 | 87 | 2.0 | 3.0 | 0.01 | 0.07 | 0.04 | 85 | 1007.7 |
| 20260904192716 | 82 | 87 | 1.0 | 3.0 | 0.01 | 0.07 | 0.04 | 85 | 1007.8 |
| 20260904192618 | 82 | 87 | 0.0 | 2.0 | 0.01 | 0.06 | 0.03 | 85 | 1007.8 |
| 20260904192517 | 82 | 87 | 0.0 | 2.0 | 0.00 | 0.06 | 0.03 | 84 | 1007.8 |
| 20260904192417 | 82 | 87 | 0.0 | 3.0 | 0.00 | 0.06 | 0.03 | 84 | 1007.8 |
| 20260904192316 | 81 | 87 | 0.0 | 3.0 | 0.00 | 0.06 | 0.03 | 84 | 1007.8 |
| 20260904192217 | 81 | 87 | 0.0 | 3.0 | 0.00 | 0.06 | 0.03 | 83 | 1007.8 |
| 20260904192119 | 81 | 87 | 0.0 | 4.0 | 0.00 | 0.06 | 0.03 | 83 | 1007.8 |
| 20260904192017 | 81 | 87 | 0.0 | 5.0 | 0.00 | 0.06 | 0.03 | 83 | 1007.7 |
| 20260904191917 | 81 | 87 | 0.0 | 5.0 | 0.00 | 0.06 | 0.03 | 83 | 1007.8 |
| 20260904191817 | 82 | 87 | 0.0 | 5.0 | 0.00 | 0.06 | 0.03 | 83 | 1007.8 |
| 20260904191716 | 82 | 87 | 0.0 | 5.0 | 0.00 | 0.06 | 0.03 | 82 | 1007.9 |
| 20260904191616 | 82 | 87 | 1.0 | 5.0 | 0.00 | 0.06 | 0.03 | 82 | 1007.9 |
| 20260904191518 | 82 | 86 | 1.0 | 5.0 | 0.00 | 0.06 | 0.03 | 82 | 1008.0 |
| 20260904191417 | 82 | 87 | 2.0 | 5.0 | 0.00 | 0.06 | 0.03 | 82 | 1007.9 |
| 20260904191316 | 82 | 87 | 2.0 | 5.0 | 0.00 | 0.06 | 0.03 | 82 | 1008.0 |
| 20260904191216 | 82 | 89 | 3.0 | 5.0 | 0.00 | 0.06 | 0.03 | 81 | 1008.2 |
| 20260904191115 | 82 | 87 | 3.0 | 5.0 | 0.00 | 0.06 | 0.03 | 81 | 1008.2 |
| 20260904191017 | 82 | 80 | 4.0 | 5.0 | 0.00 | 0.06 | 0.03 | 82 | 1008.1 |
| 20260904190915 | 82 | 89 | 2.0 | 4.0 | 0.00 | 0.06 | 0.03 | 82 | 1008.2 |
| 20260904190817 | 82 | 87 | 0.0 | 3.0 | 0.00 | 0.06 | 0.03 | 81 | 1008.2 |
| 20260904190716 | 82 | 87 | 1.0 | 3.0 | 0.00 | 0.06 | 0.03 | 80 | 1008.2 |
| 20260904190618 | 82 | 87 | 1.0 | 3.0 | 0.00 | 0.06 | 0.03 | 79 | 1008.2 |
| 20260904190518 | 82 | 89 | 2.0 | 3.0 | 0.00 | 0.06 | 0.03 | 79 | 1008.3 |
| 20260904190415 | 82 | 89 | 2.0 | 3.0 | 0.00 | 0.06 | 0.03 | 79 | 1008.2 |
| 20260904190317 | 82 | 87 | 2.0 | 3.0 | 0.00 | 0.06 | 0.03 | 80 | 1008.2 |
| 20260904190217 | 82 | 87 | 2.0 | 3.0 | 0.00 | 0.06 | 0.03 | 80 | 1008.3 |
| 20260904190115 | 82 | 87 | 2.0 | 3.0 | 0.00 | 0.06 | 0.03 | 80 | 1008.2 |
| 20260904190017 | 82 | 87 | 1.0 | 2.0 | 0.00 | 0.06 | 0.03 | 81 | 1008.3 |
| 20260904185918 | 82 | 87 | 0.0 | 0.0 | 0.00 | 0.06 | 0.03 | 80 | 1008.3 |
| 20260904185815 | 82 | 87 | 0.0 | 0.0 | 0.00 | 0.06 | 0.03 | 80 | 1008.3 |
| 20260904185715 | 82 | 87 | 0.0 | 0.0 | 0.00 | 0.06 | 0.03 | 82 | 1008.3 |
| 20260904185616 | 82 | 87 | 0.0 | 0.0 | 0.00 | 0.06 | 0.03 | 82 | 1008.4 |
| 20260904185517 | 82 | 87 | 0.0 | 0.0 | 0.00 | 0.06 | 0.03 | 82 | 1008.4 |
| 20260904185417 | 82 | 87 | 0.0 | 0.0 | 0.00 | 0.06 | 0.03 | 82 | 1008.4 |
| 20260904185316 | 82 | 87 | 0.0 | 0.0 | 0.00 | 0.06 | 0.03 | 81 | 1008.5 |
| 20260904185217 | 82 | 87 | 0.0 | 0.0 | 0.00 | 0.06 | 0.03 | 82 | 1008.4 |
| 20260904185116 | 82 | 87 | 0.0 | 0.0 | 0.00 | 0.06 | 0.03 | 82 | 1008.4 |
| 20260904185016 | 82 | 87 | 0.0 | 0.0 | 0.00 | 0.06 | 0.03 | 82 | 1008.5 |
| 20260904184917 | 82 | 87 | 0.0 | 0.0 | 0.00 | 0.06 | 0.03 | 82 | 1008.5 |
| 20260904184815 | 82 | 87 | 0.0 | 0.0 | 0.00 | 0.06 | 0.03 | 81 | 1008.5 |
| 20260904184716 | 82 | 87 | 0.0 | 0.0 | 0.00 | 0.06 | 0.03 | 83 | 1008.5 |
| 20260904184616 | 82 | 87 | 0.0 | 0.0 | 0.00 | 0.06 | 0.03 | 83 | 1008.5 |
| 20260904184515 | 82 | 87 | 0.0 | 0.0 | 0.00 | 0.06 | 0.03 | 83 | 1008.5 |
| 20260904184417 | 82 | 87 | 0.0 | 0.0 | 0.00 | 0.06 | 0.03 | 82 | 1008.6 |
| 20260904184315 | 82 | 87 | 0.0 | 0.0 | 0.00 | 0.06 | 0.03 | 82 | 1008.6 |
| 20260904184217 | 82 | 87 | 0.0 | 1.0 | 0.00 | 0.06 | 0.03 | 82 | 1008.6 |
| 20260904184115 | 82 | 87 | 0.0 | 1.0 | 0.00 | 0.06 | 0.03 | 81 | 1008.6 |
| 20260904184016 | 82 | 87 | 0.0 | 1.0 | 0.00 | 0.06 | 0.03 | 81 | 1008.6 |
| 20260904183916 | 82 | 87 | 0.0 | 1.0 | 0.00 | 0.06 | 0.03 | 81 | 1008.6 |
| 20260904183815 | 82 | 87 | 0.0 | 1.0 | 0.00 | 0.06 | 0.03 | 80 | 1008.7 |
| 20260904183717 | 82 | 87 | 0.0 | 1.0 | 0.00 | 0.06 | 0.03 | 80 | 1008.7 |
| 20260904183616 | 82 | 87 | 0.0 | 1.0 | 0.00 | 0.06 | 0.03 | 80 | 1008.7 |
| 20260904183517 | 82 | 87 | 0.0 | 1.0 | 0.00 | 0.06 | 0.03 | 80 | 1008.7 |
| 20260904183415 | 82 | 87 | 0.0 | 1.0 | 0.00 | 0.06 | 0.03 | 81 | 1008.7 |
| 20260904183316 | 82 | 87 | 0.0 | 1.0 | 0.00 | 0.06 | 0.03 | 82 | 1008.7 |
| 20260904183215 | 82 | 87 | 0.0 | 1.0 | 0.00 | 0.06 | 0.03 | 82 | 1008.7 |
| 20260904183116 | 81 | 87 | 0.0 | 1.0 | 0.00 | 0.06 | 0.03 | 83 | 1008.8 |
| 20260904183017 | 81 | 87 | 0.0 | 2.0 | 0.00 | 0.06 | 0.03 | 83 | 1008.8 |
| 20260904182915 | 81 | 87 | 0.0 | 2.0 | 0.00 | 0.06 | 0.03 | 83 | 1008.8 |
| 20260904182817 | 81 | 87 | 0.0 | 2.0 | 0.00 | 0.06 | 0.03 | 84 | 1008.8 |
| 20260904182717 | 81 | 87 | 0.0 | 2.0 | 0.00 | 0.06 | 0.03 | 83 | 1008.8 |
| 20260904182617 | 81 | 87 | 0.0 | 2.0 | 0.00 | 0.06 | 0.03 | 83 | 1008.9 |
| 20260904182516 | 80 | 87 | 0.0 | 2.0 | 0.00 | 0.06 | 0.03 | 83 | 1008.9 |
| 20260904182415 | 80 | 87 | 0.0 | 3.0 | 0.00 | 0.06 | 0.03 | 83 | 1008.9 |
| 20260904182316 | 80 | 87 | 0.0 | 3.0 | 0.00 | 0.06 | 0.03 | 83 | 1008.9 |
| 20260904182216 | 80 | 87 | 1.0 | 3.0 | 0.00 | 0.06 | 0.03 | 85 | 1008.9 |
| 20260904182116 | 80 | 87 | 1.0 | 3.0 | 0.00 | 0.06 | 0.03 | 85 | 1008.9 |
| 20260904182016 | 80 | 87 | 1.0 | 3.0 | 0.00 | 0.06 | 0.03 | 85 | 1008.8 |
| 20260904181915 | 80 | 87 | 1.0 | 4.0 | 0.00 | 0.06 | 0.03 | 85 | 1008.9 |
| 20260904181817 | 80 | 87 | 1.0 | 4.0 | 0.00 | 0.06 | 0.03 | 86 | 1008.9 |
| 20260904181715 | 80 | 87 | 1.0 | 4.0 | 0.00 | 0.06 | 0.03 | 85 | 1009.0 |
| 20260904181616 | 79 | 87 | 1.0 | 4.0 | 0.00 | 0.06 | 0.03 | 86 | 1008.9 |
| 20260904181516 | 79 | 87 | 1.0 | 4.0 | 0.00 | 0.06 | 0.03 | 87 | 1008.9 |
| 20260904181415 | 79 | 75 | 0.0 | 4.0 | 0.00 | 0.06 | 0.03 | 88 | 1009.0 |
| 20260904181315 | 79 | 58 | 0.0 | 4.0 | 0.00 | 0.06 | 0.03 | 87 | 1009.0 |
| 20260904181216 | 78 | 56 | 1.0 | 4.0 | 0.00 | 0.06 | 0.03 | 87 | 1009.0 |
| 20260904181116 | 78 | 56 | 2.0 | 4.0 | 0.00 | 0.06 | 0.03 | 89 | 1009.0 |
| 20260904181016 | 78 | 56 | 2.0 | 4.0 | 0.00 | 0.06 | 0.03 | 89 | 1009.1 |
| 20260904180916 | 78 | 47 | 2.0 | 4.0 | 0.00 | 0.06 | 0.03 | 89 | 1009.0 |
| 20260904180816 | 78 | 66 | 2.0 | 4.0 | 0.00 | 0.06 | 0.03 | 89 | 1009.0 |
| 20260904180716 | 77 | 37 | 2.0 | 5.0 | 0.01 | 0.06 | 0.03 | 89 | 1009.0 |
| 20260904180615 | 77 | 55 | 2.0 | 5.0 | 0.01 | 0.06 | 0.03 | 89 | 1009.1 |
| 20260904180515 | 77 | 56 | 2.0 | 5.0 | 0.01 | 0.06 | 0.03 | 89 | 1009.1 |
| 20260904180416 | 77 | 58 | 1.0 | 5.0 | 0.01 | 0.06 | 0.03 | 89 | 1009.1 |
| 20260904180315 | 76 | 61 | 1.0 | 5.0 | 0.01 | 0.06 | 0.03 | 89 | 1009.2 |
| 20260904180215 | 76 | 62 | 1.0 | 5.0 | 0.01 | 0.06 | 0.03 | 89 | 1009.2 |
| 20260904180115 | 76 | 61 | 2.0 | 5.0 | 0.01 | 0.06 | 0.03 | 89 | 1009.2 |
| 20260904180015 | 76 | 65 | 2.0 | 5.0 | 0.01 | 0.06 | 0.02 | 90 | 1009.2 |
| 20260904175915 | 76 | 66 | 2.0 | 5.0 | 0.01 | 0.06 | 0.03 | 90 | 1009.2 |
| 20260904175815 | 76 | 69 | 2.0 | 5.0 | 0.01 | 0.06 | 0.03 | 90 | 1009.3 |
| 20260904175714 | 76 | 52 | 2.0 | 5.0 | 0.01 | 0.06 | 0.03 | 90 | 1009.4 |
| 20260904175614 | 76 | 52 | 2.0 | 5.0 | 0.01 | 0.06 | 0.03 | 90 | 1009.3 |
| 20260904175517 | 76 | 76 | 2.0 | 5.0 | 0.01 | 0.06 | 0.03 | 90 | 1009.3 |
| 20260904175415 | 76 | 54 | 2.0 | 5.0 | 0.01 | 0.06 | 0.03 | 90 | 1009.3 |
| 20260904175316 | 75 | 75 | 1.0 | 4.0 | 0.01 | 0.06 | 0.03 | 90 | 1009.3 |
| 20260904175216 | 75 | 85 | 1.0 | 5.0 | 0.01 | 0.06 | 0.03 | 90 | 1009.2 |
| 20260904175115 | 75 | 83 | 2.0 | 5.0 | 0.01 | 0.06 | 0.03 | 90 | 1009.2 |
| 20260904175015 | 75 | 89 | 2.0 | 5.0 | 0.01 | 0.06 | 0.03 | 90 | 1009.2 |
| 20260904174915 | 75 | 89 | 2.0 | 5.0 | 0.01 | 0.06 | 0.03 | 90 | 1009.2 |
| 20260904174814 | 75 | 90 | 2.0 | 5.0 | 0.01 | 0.06 | 0.03 | 90 | 1009.2 |
| 20260904174716 | 75 | 92 | 2.0 | 5.0 | 0.01 | 0.06 | 0.03 | 90 | 1009.1 |
| 20260904174615 | 75 | 54 | 2.0 | 5.0 | 0.01 | 0.06 | 0.03 | 89 | 1009.1 |
| 20260904174516 | 75 | 54 | 2.0 | 5.0 | 0.01 | 0.06 | 0.03 | 89 | 1009.1 |
| 20260904174416 | 75 | 54 | 2.0 | 5.0 | 0.01 | 0.06 | 0.03 | 89 | 1009.1 |
| 20260904174317 | 75 | 54 | 2.0 | 5.0 | 0.01 | 0.06 | 0.03 | 89 | 1009.1 |
| 20260904174215 | 75 | 96 | 1.0 | 5.0 | 0.01 | 0.06 | 0.03 | 89 | 1009.2 |
| 20260904174116 | 75 | 110 | 2.0 | 5.0 | 0.01 | 0.06 | 0.03 | 89 | 1009.1 |
| 20260904174014 | 75 | 111 | 2.0 | 5.0 | 0.01 | 0.06 | 0.03 | 90 | 1009.2 |
| 20260904173914 | 75 | 89 | 2.0 | 4.0 | 0.01 | 0.06 | 0.03 | 89 | 1009.2 |
| 20260904173815 | 75 | 69 | 2.0 | 4.0 | 0.02 | 0.06 | 0.03 | 89 | 1009.1 |
| 20260904173714 | 75 | 49 | 2.0 | 4.0 | 0.02 | 0.06 | 0.03 | 89 | 1009.1 |
| 20260904173615 | 75 | 55 | 1.0 | 11.0 | 0.02 | 0.06 | 0.03 | 89 | 1009.1 |
| 20260904173515 | 75 | 71 | 2.0 | 11.0 | 0.02 | 0.06 | 0.03 | 89 | 1009.1 |
| 20260904173415 | 75 | 65 | 1.0 | 11.0 | 0.02 | 0.06 | 0.03 | 89 | 1009.1 |
| 20260904173313 | 75 | 72 | 1.0 | 11.0 | 0.02 | 0.06 | 0.03 | 89 | 1009.1 |
| 20260904173213 | 75 | 76 | 2.0 | 11.0 | 0.02 | 0.06 | 0.03 | 89 | 1009.1 |
| 20260904173116 | 75 | 83 | 2.0 | 11.0 | 0.02 | 0.06 | 0.03 | 89 | 1009.2 |
| 20260904173016 | 75 | 41 | 3.0 | 11.0 | 0.02 | 0.06 | 0.03 | 89 | 1009.2 |
| 20260904172914 | 75 | 23 | 2.0 | 11.0 | 0.02 | 0.06 | 0.03 | 89 | 1009.2 |
| 20260904172813 | 75 | 54 | 4.0 | 11.0 | 0.02 | 0.06 | 0.03 | 89 | 1009.2 |
| 20260904172715 | 75 | 0 | 5.0 | 13.0 | 0.02 | 0.06 | 0.03 | 89 | 1009.3 |
| 20260904172615 | 75 | 1 | 5.0 | 13.0 | 0.02 | 0.06 | 0.03 | 89 | 1009.3 |
| 20260904172506 | 75 | 0 | 6.0 | 13.0 | 0.02 | 0.06 | 0.03 | 89 | 1009.3 |
| 20260904172404 | 75 | 13 | 6.0 | 13.0 | 0.02 | 0.06 | 0.03 | 89 | 1009.4 |
| 20260904172305 | 76 | 4 | 5.0 | 13.0 | 0.02 | 0.06 | 0.03 | 89 | 1009.5 |
| 20260904172202 | 76 | 0 | 5.0 | 13.0 | 0.02 | 0.06 | 0.03 | 89 | 1009.4 |
| 20260904172103 | 76 | 341 | 6.0 | 13.0 | 0.02 | 0.06 | 0.03 | 89 | 1009.5 |
| 20260904172005 | 76 | 37 | 7.0 | 13.0 | 0.02 | 0.06 | 0.03 | 89 | 1009.6 |
| 20260904171904 | 76 | 27 | 8.0 | 13.0 | 0.02 | 0.06 | 0.03 | 89 | 1009.6 |
| 20260904171804 | 77 | 8 | 6.0 | 13.0 | 0.02 | 0.06 | 0.03 | 90 | 1009.5 |
| 20260904171703 | 77 | 23 | 5.0 | 12.0 | 0.02 | 0.06 | 0.03 | 90 | 1009.6 |
| 20260904171603 | 77 | 85 | 5.0 | 12.0 | 0.02 | 0.06 | 0.03 | 90 | 1009.6 |
| 20260904171504 | 77 | 31 | 2.0 | 7.0 | 0.03 | 0.06 | 0.03 | 90 | 1009.6 |
| 20260904171400 | 77 | 27 | 2.0 | 7.0 | 0.03 | 0.06 | 0.03 | 90 | 1009.6 |
| 20260904171258 | 77 | 32 | 3.0 | 7.0 | 0.03 | 0.06 | 0.03 | 90 | 1009.7 |
| 20260904171152 | 77 | 27 | 3.0 | 7.0 | 0.03 | 0.06 | 0.03 | 90 | 1009.6 |
| 20260904171052 | 77 | 28 | 3.0 | 7.0 | 0.03 | 0.06 | 0.03 | 89 | 1009.6 |
| 20260904170949 | 77 | 14 | 4.0 | 7.0 | 0.03 | 0.06 | 0.03 | 89 | 1009.6 |
| 20260904170849 | 77 | 4 | 5.0 | 7.0 | 0.03 | 0.06 | 0.03 | 89 | 1009.6 |
| 20260904170744 | 77 | 0 | 5.0 | 7.0 | 0.03 | 0.05 | 0.02 | 89 | 1009.6 |
| 20260904170640 | 77 | 0 | 5.0 | 7.0 | 0.02 | 0.05 | 0.02 | 89 | 1009.6 |
| 20260904170534 | 77 | 345 | 4.0 | 7.0 | 0.02 | 0.05 | 0.02 | 90 | 1009.7 |
| 20260904170432 | 77 | 4 | 3.0 | 6.0 | 0.02 | 0.05 | 0.02 | 89 | 1009.8 |
| 20260904170324 | 77 | 0 | 3.0 | 6.0 | 0.02 | 0.05 | 0.02 | 89 | 1009.9 |
| 20260904170222 | 77 | 357 | 4.0 | 6.0 | 0.02 | 0.05 | 0.02 | 89 | 1009.9 |
| 20260904170120 | 77 | 17 | 4.0 | 6.0 | 0.02 | 0.05 | 0.02 | 89 | 1009.8 |
| 20260904170015 | 77 | 4 | 3.0 | 5.0 | 0.02 | 0.05 | 0.00 | 89 | 1009.7 |
| 20260904165911 | 77 | 8 | 3.0 | 5.0 | 0.02 | 0.05 | 0.02 | 89 | 1009.5 |
| 20260904165812 | 77 | 66 | 2.0 | 4.0 | 0.02 | 0.05 | 0.02 | 89 | 1009.4 |
| 20260904165711 | 77 | 68 | 1.0 | 5.0 | 0.02 | 0.05 | 0.02 | 89 | 1009.3 |
| 20260904165609 | 77 | 68 | 0.0 | 6.0 | 0.02 | 0.05 | 0.02 | 88 | 1009.1 |
| 20260904165504 | 77 | 68 | 0.0 | 6.0 | 0.02 | 0.05 | 0.02 | 88 | 1009.1 |
| 20260904165404 | 78 | 68 | 0.0 | 6.0 | 0.02 | 0.05 | 0.02 | 88 | 1009.1 |
| 20260904165305 | 78 | 68 | 0.0 | 6.0 | 0.02 | 0.05 | 0.02 | 88 | 1009.2 |
| 20260904165203 | 78 | 68 | 0.0 | 6.0 | 0.02 | 0.05 | 0.02 | 88 | 1009.3 |
| 20260904165104 | 78 | 68 | 1.0 | 6.0 | 0.02 | 0.05 | 0.02 | 88 | 1009.5 |
| 20260904165004 | 78 | 68 | 2.0 | 6.0 | 0.02 | 0.05 | 0.02 | 88 | 1009.6 |
| 20260904164903 | 78 | 71 | 3.0 | 6.0 | 0.02 | 0.05 | 0.02 | 88 | 1009.7 |
| 20260904164803 | 78 | 71 | 4.0 | 6.0 | 0.02 | 0.05 | 0.02 | 88 | 1009.8 |
| 20260904164702 | 78 | 80 | 5.0 | 6.0 | 0.02 | 0.05 | 0.02 | 88 | 1009.9 |
| 20260904164603 | 78 | 87 | 4.0 | 6.0 | 0.02 | 0.05 | 0.02 | 88 | 1009.9 |
| 20260904164504 | 78 | 92 | 4.0 | 7.0 | 0.02 | 0.05 | 0.02 | 88 | 1009.7 |
| 20260904164404 | 78 | 93 | 4.0 | 7.0 | 0.02 | 0.05 | 0.02 | 88 | 1009.7 |
| 20260904164304 | 78 | 86 | 4.0 | 7.0 | 0.02 | 0.05 | 0.02 | 88 | 1009.7 |
| 20260904164204 | 78 | 92 | 4.0 | 7.0 | 0.02 | 0.05 | 0.02 | 87 | 1009.6 |
| 20260904164103 | 78 | 96 | 4.0 | 7.0 | 0.02 | 0.05 | 0.02 | 87 | 1009.6 |
| 20260904164003 | 78 | 92 | 3.0 | 7.0 | 0.02 | 0.05 | 0.02 | 87 | 1009.5 |
| 20260904163904 | 78 | 97 | 3.0 | 7.0 | 0.02 | 0.04 | 0.01 | 88 | 1009.5 |
| 20260904163804 | 78 | 107 | 4.0 | 7.0 | 0.01 | 0.04 | 0.01 | 88 | 1009.6 |
| 20260904163703 | 78 | 128 | 5.0 | 7.0 | 0.01 | 0.04 | 0.01 | 88 | 1009.6 |
| 20260904163602 | 78 | 127 | 5.0 | 7.0 | 0.01 | 0.04 | 0.01 | 88 | 1009.6 |
| 20260904163502 | 78 | 106 | 5.0 | 6.0 | 0.01 | 0.04 | 0.01 | 88 | 1009.5 |
| 20260904163403 | 78 | 107 | 4.0 | 6.0 | 0.01 | 0.04 | 0.01 | 88 | 1009.5 |
| 20260904163302 | 78 | 82 | 3.0 | 6.0 | 0.01 | 0.04 | 0.01 | 87 | 1009.3 |
| 20260904163202 | 78 | 13 | 4.0 | 6.0 | 0.01 | 0.04 | 0.01 | 87 | 1009.3 |
| 20260904163102 | 78 | 338 | 4.0 | 7.0 | 0.01 | 0.04 | 0.01 | 87 | 1009.3 |
| 20260904163003 | 78 | 348 | 4.0 | 7.0 | 0.01 | 0.04 | 0.01 | 87 | 1009.2 |
| 20260904162903 | 78 | 320 | 4.0 | 7.0 | 0.01 | 0.04 | 0.01 | 87 | 1009.2 |
| 20260904162802 | 78 | 309 | 3.0 | 7.0 | 0.01 | 0.04 | 0.01 | 86 | 1009.1 |
| 20260904162702 | 78 | 295 | 3.0 | 7.0 | 0.01 | 0.04 | 0.01 | 86 | 1009.1 |
| 20260904162603 | 78 | 283 | 4.0 | 7.0 | 0.01 | 0.04 | 0.01 | 87 | 1009.1 |
| 20260904162505 | 78 | 272 | 5.0 | 7.0 | 0.01 | 0.04 | 0.01 | 87 | 1009.1 |
| 20260904162401 | 78 | 265 | 4.0 | 7.0 | 0.01 | 0.04 | 0.01 | 87 | 1009.1 |
| 20260904162305 | 78 | 269 | 4.0 | 7.0 | 0.01 | 0.04 | 0.01 | 86 | 1009.1 |
| 20260904162204 | 78 | 289 | 5.0 | 7.0 | 0.01 | 0.04 | 0.01 | 86 | 1009.0 |
| 20260904162104 | 78 | 292 | 4.0 | 7.0 | 0.01 | 0.04 | 0.01 | 85 | 1009.1 |
| 20260904162002 | 79 | 283 | 5.0 | 7.0 | 0.01 | 0.04 | 0.01 | 85 | 1009.0 |
| 20260904161905 | 79 | 292 | 5.0 | 7.0 | 0.01 | 0.04 | 0.01 | 85 | 1009.2 |
| 20260904161802 | 79 | 288 | 5.0 | 7.0 | 0.01 | 0.04 | 0.01 | 85 | 1009.3 |
| 20260904161703 | 79 | 309 | 5.0 | 7.0 | 0.01 | 0.04 | 0.01 | 84 | 1009.3 |
| 20260904161604 | 80 | 0 | 6.0 | 7.0 | 0.01 | 0.03 | 0.00 | 83 | 1009.4 |
| 20260904161504 | 80 | 0 | 6.0 | 7.0 | 0.00 | 0.03 | 0.00 | 83 | 1009.6 |
| 20260904161404 | 80 | 0 | 5.0 | 6.0 | 0.00 | 0.03 | 0.00 | 82 | 1009.6 |
| 20260904161303 | 80 | 18 | 4.0 | 6.0 | 0.00 | 0.03 | 0.00 | 82 | 1009.5 |
| 20260904161203 | 80 | 28 | 4.0 | 9.0 | 0.00 | 0.03 | 0.00 | 82 | 1009.4 |
| 20260904161102 | 80 | 24 | 3.0 | 9.0 | 0.00 | 0.03 | 0.00 | 82 | 1009.3 |
| 20260904161003 | 81 | 59 | 1.0 | 9.0 | 0.00 | 0.03 | 0.00 | 82 | 1009.3 |
| 20260904160902 | 81 | 157 | 1.0 | 9.0 | 0.00 | 0.03 | 0.00 | 81 | 1009.2 |
| 20260904160803 | 81 | 157 | 2.0 | 9.0 | 0.00 | 0.03 | 0.00 | 80 | 1009.0 |
| 20260904160702 | 82 | 199 | 3.0 | 9.0 | 0.00 | 0.03 | 0.00 | 80 | 1009.0 |
| 20260904160602 | 82 | 155 | 4.0 | 9.0 | 0.00 | 0.03 | 0.00 | 79 | 1008.9 |
| 20260904160505 | 83 | 188 | 4.0 | 9.0 | 0.00 | 0.03 | 0.00 | 79 | 1008.8 |
| 20260904160402 | 84 | 189 | 4.0 | 9.0 | 0.00 | 0.03 | 0.00 | 78 | 1008.7 |
| 20260904160304 | 85 | 192 | 4.0 | 9.0 | 0.00 | 0.03 | 0.00 | 78 | 1008.7 |
| 20260904160203 | 85 | 206 | 3.0 | 6.0 | 0.00 | 0.03 | 0.00 | 78 | 1008.8 |
| 20260904160105 | 86 | 155 | 3.0 | 6.0 | 0.00 | 0.03 | 0.00 | 78 | 1008.7 |
| 20260904160004 | 86 | 206 | 2.0 | 6.0 | 0.00 | 0.03 | 0.00 | 78 | 1008.7 |
| 20260904155904 | 86 | 214 | 2.0 | 6.0 | 0.00 | 0.03 | 0.00 | 78 | 1008.6 |
| 20260904155803 | 86 | 186 | 3.0 | 6.0 | 0.00 | 0.03 | 0.00 | 77 | 1008.6 |
| 20260904155702 | 87 | 197 | 3.0 | 4.0 | 0.00 | 0.03 | 0.00 | 77 | 1008.6 |
| 20260904155603 | 87 | 175 | 2.0 | 5.0 | 0.00 | 0.03 | 0.00 | 77 | 1008.5 |
| 20260904155503 | 87 | 180 | 2.0 | 5.0 | 0.00 | 0.03 | 0.00 | 76 | 1008.5 |
| 20260904155403 | 87 | 180 | 2.0 | 5.0 | 0.00 | 0.03 | 0.00 | 76 | 1008.5 |
| 20260904155306 | 87 | 175 | 3.0 | 5.0 | 0.00 | 0.03 | 0.00 | 76 | 1008.4 |
| 20260904155203 | 87 | 180 | 2.0 | 5.0 | 0.00 | 0.03 | 0.00 | 76 | 1008.5 |
| 20260904155102 | 88 | 188 | 2.0 | 5.0 | 0.00 | 0.03 | 0.00 | 76 | 1008.5 |
| 20260904155002 | 88 | 203 | 2.0 | 5.0 | 0.00 | 0.03 | 0.00 | 76 | 1008.4 |
| 20260904154902 | 88 | 185 | 2.0 | 5.0 | 0.00 | 0.03 | 0.00 | 75 | 1008.5 |
| 20260904154804 | 88 | 207 | 2.0 | 5.0 | 0.00 | 0.03 | 0.00 | 75 | 1008.4 |
| 20260904154702 | 88 | 169 | 3.0 | 5.0 | 0.00 | 0.03 | 0.00 | 75 | 1008.4 |
| 20260904154603 | 88 | 226 | 3.0 | 5.0 | 0.00 | 0.03 | 0.00 | 75 | 1008.4 |
| 20260904154502 | 88 | 135 | 1.0 | 4.0 | 0.00 | 0.03 | 0.00 | 75 | 1008.4 |
| 20260904154403 | 88 | 188 | 0.0 | 4.0 | 0.00 | 0.03 | 0.00 | 75 | 1008.3 |
| 20260904154304 | 88 | 188 | 1.0 | 4.0 | 0.00 | 0.03 | 0.00 | 75 | 1008.4 |
| 20260904154204 | 88 | 188 | 1.0 | 4.0 | 0.00 | 0.03 | 0.00 | 75 | 1008.4 |
| 20260904154102 | 88 | 188 | 1.0 | 4.0 | 0.00 | 0.03 | 0.00 | 74 | 1008.4 |
| 20260904154004 | 88 | 189 | 2.0 | 4.0 | 0.00 | 0.03 | 0.00 | 74 | 1008.3 |
| 20260904153901 | 88 | 157 | 2.0 | 4.0 | 0.00 | 0.03 | 0.00 | 74 | 1008.3 |
| 20260904153804 | 88 | 200 | 0.0 | 3.0 | 0.00 | 0.03 | 0.00 | 74 | 1008.3 |
| 20260904153704 | 88 | 171 | 0.0 | 3.0 | 0.00 | 0.03 | 0.00 | 74 | 1008.2 |
| 20260904153602 | 88 | 169 | 1.0 | 4.0 | 0.00 | 0.03 | 0.00 | 75 | 1008.2 |
| 20260904153504 | 88 | 152 | 1.0 | 4.0 | 0.00 | 0.03 | 0.00 | 75 | 1008.2 |
| 20260904153403 | 88 | 149 | 1.0 | 4.0 | 0.00 | 0.03 | 0.00 | 74 | 1008.3 |
| 20260904153304 | 88 | 149 | 1.0 | 4.0 | 0.00 | 0.03 | 0.00 | 74 | 1008.2 |
| 20260904153204 | 88 | 135 | 0.0 | 4.0 | 0.00 | 0.03 | 0.00 | 74 | 1008.2 |
| 20260904153104 | 88 | 134 | 1.0 | 4.0 | 0.00 | 0.03 | 0.00 | 75 | 1008.2 |
| 20260904153004 | 88 | 134 | 1.0 | 4.0 | 0.00 | 0.03 | 0.00 | 75 | 1008.3 |
| 20260904152903 | 88 | 133 | 1.0 | 4.0 | 0.00 | 0.03 | 0.00 | 75 | 1008.3 |
| 20260904152804 | 88 | 131 | 2.0 | 4.0 | 0.00 | 0.03 | 0.00 | 75 | 1008.3 |
| 20260904152704 | 88 | 130 | 1.0 | 4.0 | 0.00 | 0.03 | 0.00 | 75 | 1008.4 |
| 20260904152603 | 88 | 171 | 0.0 | 0.0 | 0.00 | 0.03 | 0.00 | 75 | 1008.4 |
| 20260904152503 | 88 | 171 | 0.0 | 1.0 | 0.00 | 0.03 | 0.00 | 75 | 1008.4 |
| 20260904152402 | 89 | 152 | 0.0 | 4.0 | 0.00 | 0.03 | 0.00 | 76 | 1008.4 |
| 20260904152306 | 88 | 145 | 0.0 | 5.0 | 0.00 | 0.03 | 0.00 | 76 | 1008.4 |
| 20260904152203 | 88 | 145 | 0.0 | 5.0 | 0.00 | 0.03 | 0.00 | 76 | 1008.4 |
| 20260904152103 | 88 | 145 | 0.0 | 6.0 | 0.00 | 0.03 | 0.00 | 76 | 1008.4 |
| 20260904152003 | 88 | 145 | 0.0 | 6.0 | 0.00 | 0.03 | 0.00 | 76 | 1008.4 |
| 20260904151903 | 88 | 142 | 0.0 | 6.0 | 0.00 | 0.03 | 0.00 | 76 | 1008.4 |
| 20260904151803 | 88 | 141 | 0.0 | 6.0 | 0.00 | 0.03 | 0.00 | 76 | 1008.3 |
| 20260904151703 | 88 | 140 | 0.0 | 6.0 | 0.00 | 0.03 | 0.00 | 76 | 1008.4 |
| 20260904151603 | 88 | 140 | 2.0 | 6.0 | 0.00 | 0.03 | 0.00 | 76 | 1008.3 |
| 20260904151503 | 88 | 147 | 3.0 | 6.0 | 0.00 | 0.03 | 0.00 | 76 | 1008.3 |
| 20260904151403 | 89 | 127 | 3.0 | 6.0 | 0.00 | 0.03 | 0.00 | 75 | 1008.2 |
| 20260904151303 | 89 | 107 | 3.0 | 6.0 | 0.00 | 0.03 | 0.00 | 75 | 1008.2 |
| 20260904151202 | 89 | 114 | 2.0 | 6.0 | 0.00 | 0.03 | 0.00 | 75 | 1008.3 |
| 20260904151102 | 89 | 117 | 2.0 | 6.0 | 0.00 | 0.03 | 0.00 | 76 | 1008.3 |
| 20260904151004 | 89 | 117 | 3.0 | 6.0 | 0.00 | 0.03 | 0.00 | 75 | 1008.2 |
| 20260904150904 | 89 | 94 | 3.0 | 6.0 | 0.00 | 0.03 | 0.00 | 75 | 1008.2 |
| 20260904150803 | 89 | 138 | 2.0 | 4.0 | 0.00 | 0.03 | 0.00 | 75 | 1008.2 |
| 20260904150702 | 89 | 154 | 1.0 | 4.0 | 0.00 | 0.03 | 0.00 | 75 | 1008.2 |
| 20260904150605 | 90 | 178 | 0.0 | 10.0 | 0.00 | 0.03 | 0.00 | 75 | 1008.2 |
| 20260904150502 | 90 | 178 | 0.0 | 10.0 | 0.00 | 0.03 | 0.00 | 75 | 1008.2 |
| 20260904150402 | 90 | 193 | 1.0 | 10.0 | 0.00 | 0.03 | 0.00 | 75 | 1008.2 |
| 20260904150302 | 89 | 196 | 1.0 | 10.0 | 0.00 | 0.03 | 0.00 | 75 | 1008.2 |
| 20260904150201 | 89 | 203 | 2.0 | 10.0 | 0.00 | 0.03 | 0.00 | 76 | 1008.2 |
| 20260904150004 | 89 | 137 | 3.0 | 10.0 | 0.00 | 0.03 | 0.00 | 75 | 1008.2 |
| 20260904145902 | 89 | 123 | 2.0 | 10.0 | 0.00 | 0.03 | 0.00 | 76 | 1008.2 |
| 20260904145804 | 89 | 165 | 4.0 | 10.0 | 0.00 | 0.03 | 0.00 | 76 | 1008.2 |
| 20260904145703 | 89 | 166 | 3.0 | 10.0 | 0.00 | 0.03 | 0.00 | 76 | 1008.1 |
| 20260904145602 | 89 | 79 | 0.0 | 6.0 | 0.00 | 0.03 | 0.00 | 76 | 1008.2 |
| 20260904145503 | 89 | 183 | 0.0 | 6.0 | 0.00 | 0.03 | 0.00 | 77 | 1008.2 |
| 20260904145404 | 89 | 185 | 0.0 | 6.0 | 0.00 | 0.03 | 0.00 | 75 | 1008.2 |
| 20260904145305 | 89 | 185 | 1.0 | 6.0 | 0.00 | 0.03 | 0.00 | 75 | 1008.2 |
| 20260904145203 | 89 | 186 | 1.0 | 6.0 | 0.00 | 0.03 | 0.00 | 75 | 1008.2 |
| 20260904145103 | 89 | 182 | 2.0 | 6.0 | 0.00 | 0.03 | 0.00 | 76 | 1008.3 |
| 20260904145002 | 89 | 173 | 3.0 | 6.0 | 0.00 | 0.03 | 0.00 | 76 | 1008.2 |
| 20260904144904 | 89 | 173 | 3.0 | 5.0 | 0.00 | 0.03 | 0.00 | 76 | 1008.2 |
| 20260904144803 | 89 | 169 | 2.0 | 6.0 | 0.00 | 0.03 | 0.00 | 77 | 1008.2 |
| 20260904144703 | 88 | 131 | 1.0 | 6.0 | 0.00 | 0.03 | 0.00 | 78 | 1008.3 |
| 20260904144605 | 88 | 144 | 0.0 | 6.0 | 0.00 | 0.03 | 0.00 | 76 | 1008.2 |
| 20260904144506 | 88 | 144 | 1.0 | 6.0 | 0.00 | 0.03 | 0.00 | 76 | 1008.2 |
| 20260904144404 | 88 | 144 | 2.0 | 6.0 | 0.00 | 0.03 | 0.00 | 76 | 1008.3 |
| 20260904144302 | 88 | 142 | 3.0 | 6.0 | 0.00 | 0.03 | 0.00 | 76 | 1008.3 |
| 20260904144203 | 88 | 141 | 2.0 | 6.0 | 0.00 | 0.03 | 0.00 | 77 | 1008.3 |
| 20260904144104 | 88 | 151 | 3.0 | 6.0 | 0.00 | 0.03 | 0.00 | 78 | 1008.3 |
| 20260904143959 | 87 | 130 | 4.0 | 6.0 | 0.00 | 0.03 | 0.00 | 78 | 1008.3 |
| 20260904143851 | 88 | 116 | 2.0 | 6.0 | 0.00 | 0.03 | 0.00 | 78 | 1008.3 |
| 20260904143749 | 88 | 171 | 0.0 | 6.0 | 0.00 | 0.03 | 0.00 | 78 | 1008.2 |
| 20260904143644 | 88 | 171 | 0.0 | 7.0 | 0.00 | 0.03 | 0.00 | 78 | 1008.2 |
| 20260904143543 | 88 | 164 | 1.0 | 7.0 | 0.00 | 0.03 | 0.00 | 79 | 1008.2 |
| 20260904143437 | 88 | 164 | 2.0 | 7.0 | 0.00 | 0.03 | 0.00 | 79 | 1008.2 |
| 20260904143337 | 88 | 145 | 3.0 | 7.0 | 0.00 | 0.03 | 0.00 | 79 | 1008.2 |
| 20260904143231 | 87 | 120 | 2.0 | 7.0 | 0.00 | 0.03 | 0.00 | 80 | 1008.2 |
| 20260904143132 | 87 | 128 | 2.0 | 7.0 | 0.00 | 0.03 | 0.00 | 80 | 1008.2 |
| 20260904143031 | 87 | 125 | 2.0 | 7.0 | 0.00 | 0.03 | 0.00 | 79 | 1008.2 |
| 20260904142931 | 87 | 124 | 3.0 | 7.0 | 0.00 | 0.03 | 0.00 | 79 | 1008.2 |
| 20260904142833 | 87 | 110 | 5.0 | 7.0 | 0.00 | 0.03 | 0.00 | 80 | 1008.2 |
| 20260904142731 | 87 | 87 | 5.0 | 7.0 | 0.00 | 0.03 | 0.00 | 80 | 1008.2 |
| 20260904142632 | 87 | 102 | 4.0 | 6.0 | 0.00 | 0.03 | 0.00 | 81 | 1008.3 |
| 20260904142533 | 87 | 121 | 4.0 | 6.0 | 0.00 | 0.03 | 0.00 | 81 | 1008.3 |
| 20260904142431 | 87 | 120 | 3.0 | 6.0 | 0.00 | 0.03 | 0.00 | 81 | 1008.3 |
| 20260904142332 | 87 | 99 | 3.0 | 6.0 | 0.00 | 0.03 | 0.00 | 81 | 1008.2 |
| 20260904142233 | 87 | 99 | 4.0 | 6.0 | 0.00 | 0.03 | 0.00 | 81 | 1008.3 |
| 20260904142131 | 87 | 130 | 4.0 | 9.0 | 0.00 | 0.03 | 0.00 | 81 | 1008.3 |
| 20260904142032 | 87 | 135 | 4.0 | 9.0 | 0.00 | 0.03 | 0.00 | 81 | 1008.3 |
| 20260904141932 | 87 | 113 | 4.0 | 9.0 | 0.00 | 0.03 | 0.00 | 82 | 1008.2 |
| 20260904141834 | 87 | 123 | 3.0 | 9.0 | 0.00 | 0.03 | 0.00 | 82 | 1008.2 |
| 20260904141732 | 87 | 154 | 2.0 | 9.0 | 0.00 | 0.03 | 0.00 | 82 | 1008.2 |
| 20260904141633 | 87 | 166 | 2.0 | 9.0 | 0.00 | 0.03 | 0.00 | 82 | 1008.2 |
| 20260904141531 | 86 | 113 | 3.0 | 9.0 | 0.00 | 0.03 | 0.00 | 83 | 1008.2 |
| 20260904141432 | 86 | 114 | 4.0 | 9.0 | 0.00 | 0.03 | 0.00 | 82 | 1008.2 |
| 20260904141331 | 86 | 104 | 5.0 | 9.0 | 0.00 | 0.03 | 0.00 | 82 | 1008.2 |
| 20260904141231 | 86 | 94 | 5.0 | 9.0 | 0.00 | 0.03 | 0.00 | 82 | 1008.2 |
| 20260904141133 | 86 | 107 | 4.0 | 7.0 | 0.00 | 0.03 | 0.00 | 82 | 1008.2 |
| 20260904141031 | 86 | 111 | 4.0 | 7.0 | 0.00 | 0.03 | 0.00 | 83 | 1008.2 |
| 20260904140931 | 86 | 75 | 3.0 | 7.0 | 0.00 | 0.03 | 0.00 | 83 | 1008.2 |
| 20260904140833 | 86 | 114 | 2.0 | 7.0 | 0.00 | 0.03 | 0.00 | 83 | 1008.2 |
| 20260904140731 | 86 | 116 | 4.0 | 7.0 | 0.00 | 0.03 | 0.00 | 83 | 1008.3 |
| 20260904140632 | 86 | 116 | 4.0 | 7.0 | 0.00 | 0.03 | 0.00 | 83 | 1008.2 |
| 20260904140528 | 86 | 110 | 4.0 | 7.0 | 0.00 | 0.03 | 0.00 | 83 | 1008.2 |
| 20260904140428 | 86 | 124 | 4.0 | 7.0 | 0.00 | 0.03 | 0.00 | 83 | 1008.3 |
| 20260904140325 | 86 | 109 | 5.0 | 7.0 | 0.00 | 0.03 | 0.00 | 83 | 1008.3 |
| 20260904140224 | 86 | 79 | 4.0 | 7.0 | 0.00 | 0.03 | 0.00 | 84 | 1008.2 |
| 20260904140111 | 86 | 76 | 4.0 | 7.0 | 0.00 | 0.03 | 0.00 | 83 | 1008.3 |
| 20260904140012 | 86 | 102 | 3.0 | 7.0 | 0.00 | 0.03 | 0.00 | 83 | 1008.2 |
| 20260904135910 | 86 | 96 | 4.0 | 7.0 | 0.00 | 0.03 | 0.00 | 83 | 1008.2 |
| 20260904135811 | 86 | 75 | 5.0 | 7.0 | 0.00 | 0.03 | 0.00 | 84 | 1008.3 |
| 20260904135710 | 86 | 100 | 3.0 | 6.0 | 0.00 | 0.03 | 0.00 | 84 | 1008.2 |
| 20260904135610 | 86 | 107 | 2.0 | 6.0 | 0.00 | 0.03 | 0.00 | 84 | 1008.2 |
| 20260904135511 | 86 | 89 | 3.0 | 6.0 | 0.00 | 0.03 | 0.00 | 84 | 1008.2 |
| 20260904135409 | 86 | 86 | 4.0 | 6.0 | 0.00 | 0.03 | 0.00 | 84 | 1008.2 |
| 20260904135311 | 85 | 100 | 4.0 | 6.0 | 0.00 | 0.03 | 0.00 | 84 | 1008.2 |
| 20260904135209 | 85 | 94 | 2.0 | 5.0 | 0.00 | 0.03 | 0.00 | 84 | 1008.2 |
| 20260904135110 | 85 | 78 | 2.0 | 5.0 | 0.00 | 0.03 | 0.00 | 85 | 1008.2 |
| 20260904135011 | 85 | 96 | 2.0 | 5.0 | 0.00 | 0.03 | 0.00 | 85 | 1008.2 |
| 20260904134910 | 85 | 97 | 3.0 | 5.0 | 0.00 | 0.03 | 0.00 | 85 | 1008.2 |
| 20260904134809 | 85 | 97 | 3.0 | 5.0 | 0.00 | 0.03 | 0.00 | 85 | 1008.2 |
| 20260904134710 | 85 | 96 | 3.0 | 6.0 | 0.00 | 0.03 | 0.00 | 84 | 1008.1 |
| 20260904134609 | 85 | 111 | 4.0 | 6.0 | 0.00 | 0.03 | 0.00 | 84 | 1008.2 |
| 20260904134509 | 85 | 109 | 4.0 | 6.0 | 0.00 | 0.03 | 0.00 | 85 | 1008.2 |
| 20260904134410 | 85 | 80 | 3.0 | 6.0 | 0.00 | 0.03 | 0.00 | 85 | 1008.1 |
| 20260904134310 | 85 | 104 | 3.0 | 6.0 | 0.00 | 0.03 | 0.00 | 85 | 1008.1 |
| 20260904134210 | 85 | 106 | 3.0 | 6.0 | 0.00 | 0.03 | 0.00 | 85 | 1008.1 |
| 20260904134109 | 85 | 83 | 4.0 | 6.0 | 0.00 | 0.03 | 0.00 | 85 | 1008.1 |
| 20260904134009 | 85 | 82 | 4.0 | 6.0 | 0.00 | 0.03 | 0.00 | 85 | 1008.2 |
| 20260904133909 | 85 | 85 | 4.0 | 6.0 | 0.00 | 0.03 | 0.00 | 85 | 1008.2 |
| 20260904133809 | 85 | 103 | 3.0 | 6.0 | 0.00 | 0.03 | 0.00 | 85 | 1008.2 |
| 20260904133710 | 85 | 99 | 3.0 | 5.0 | 0.00 | 0.03 | 0.00 | 85 | 1008.2 |
| 20260904133608 | 85 | 102 | 3.0 | 5.0 | 0.00 | 0.03 | 0.00 | 85 | 1008.2 |
| 20260904133511 | 85 | 103 | 3.0 | 5.0 | 0.00 | 0.03 | 0.00 | 85 | 1008.2 |
| 20260904133411 | 85 | 104 | 4.0 | 5.0 | 0.00 | 0.03 | 0.00 | 85 | 1008.2 |
| 20260904133309 | 85 | 106 | 4.0 | 5.0 | 0.00 | 0.03 | 0.00 | 85 | 1008.2 |
| 20260904133208 | 85 | 113 | 4.0 | 5.0 | 0.00 | 0.03 | 0.00 | 86 | 1008.2 |
| 20260904133110 | 85 | 93 | 3.0 | 5.0 | 0.00 | 0.03 | 0.00 | 86 | 1008.1 |
| 20260904133009 | 84 | 111 | 3.0 | 6.0 | 0.00 | 0.03 | 0.00 | 86 | 1008.1 |
| 20260904132909 | 84 | 114 | 3.0 | 6.0 | 0.00 | 0.03 | 0.00 | 86 | 1008.1 |
| 20260904132810 | 84 | 97 | 3.0 | 6.0 | 0.00 | 0.03 | 0.00 | 87 | 1008.1 |
| 20260904132711 | 84 | 59 | 3.0 | 6.0 | 0.00 | 0.03 | 0.00 | 87 | 1008.1 |
| 20260904132610 | 84 | 92 | 4.0 | 6.0 | 0.00 | 0.03 | 0.00 | 87 | 1008.0 |
| 20260904132510 | 84 | 90 | 4.0 | 6.0 | 0.00 | 0.03 | 0.00 | 87 | 1008.0 |
| 20260904132408 | 84 | 113 | 4.0 | 6.0 | 0.00 | 0.03 | 0.00 | 87 | 1008.0 |
| 20260904132310 | 84 | 116 | 4.0 | 6.0 | 0.00 | 0.03 | 0.00 | 87 | 1007.9 |
| 20260904132210 | 84 | 103 | 4.0 | 6.0 | 0.00 | 0.03 | 0.00 | 87 | 1008.0 |
| 20260904132110 | 84 | 106 | 4.0 | 6.0 | 0.00 | 0.03 | 0.00 | 87 | 1007.9 |
| 20260904132008 | 84 | 99 | 3.0 | 5.0 | 0.00 | 0.03 | 0.00 | 87 | 1007.9 |
| 20260904131908 | 84 | 96 | 4.0 | 5.0 | 0.00 | 0.03 | 0.00 | 87 | 1007.9 |
| 20260904131810 | 84 | 110 | 3.0 | 5.0 | 0.00 | 0.03 | 0.00 | 87 | 1007.8 |
| 20260904131709 | 84 | 97 | 2.0 | 5.0 | 0.00 | 0.03 | 0.00 | 88 | 1007.9 |
| 20260904131609 | 83 | 93 | 3.0 | 5.0 | 0.00 | 0.03 | 0.00 | 88 | 1007.9 |
| 20260904131510 | 83 | 99 | 3.0 | 5.0 | 0.00 | 0.03 | 0.00 | 88 | 1007.9 |
| 20260904131409 | 83 | 94 | 2.0 | 5.0 | 0.00 | 0.03 | 0.00 | 89 | 1007.9 |
| 20260904131310 | 83 | 92 | 2.0 | 5.0 | 0.00 | 0.03 | 0.00 | 89 | 1007.9 |
| 20260904131209 | 83 | 90 | 3.0 | 5.0 | 0.00 | 0.03 | 0.00 | 89 | 1007.9 |
| 20260904131111 | 83 | 85 | 3.0 | 5.0 | 0.00 | 0.03 | 0.00 | 89 | 1007.9 |
| 20260904131010 | 83 | 107 | 3.0 | 5.0 | 0.00 | 0.03 | 0.00 | 89 | 1007.8 |
| 20260904130908 | 83 | 107 | 1.0 | 4.0 | 0.00 | 0.03 | 0.00 | 89 | 1007.9 |
| 20260904130809 | 83 | 106 | 2.0 | 4.0 | 0.00 | 0.03 | 0.00 | 90 | 1007.8 |
| 20260904130708 | 82 | 106 | 2.0 | 4.0 | 0.00 | 0.03 | 0.00 | 90 | 1007.8 |
| 20260904130608 | 82 | 106 | 1.0 | 4.0 | 0.00 | 0.03 | 0.00 | 90 | 1007.8 |
| 20260904130507 | 82 | 106 | 1.0 | 4.0 | 0.00 | 0.03 | 0.00 | 90 | 1007.7 |
| 20260904130409 | 82 | 107 | 2.0 | 4.0 | 0.00 | 0.03 | 0.00 | 90 | 1007.8 |
| 20260904130307 | 82 | 107 | 2.0 | 4.0 | 0.00 | 0.03 | 0.00 | 90 | 1007.7 |
| 20260904130208 | 82 | 106 | 3.0 | 4.0 | 0.00 | 0.03 | 0.00 | 90 | 1007.7 |
| 20260904130107 | 82 | 107 | 3.0 | 4.0 | 0.00 | 0.03 | 0.00 | 91 | 1007.8 |
| 20260904130009 | 82 | 113 | 2.0 | 4.0 | 0.00 | 0.03 | 0.00 | 91 | 1007.8 |
| 20260904125909 | 82 | 113 | 2.0 | 4.0 | 0.00 | 0.03 | 0.00 | 91 | 1007.8 |
| 20260904125809 | 82 | 113 | 2.0 | 4.0 | 0.00 | 0.03 | 0.00 | 91 | 1007.8 |
| 20260904125708 | 81 | 117 | 2.0 | 4.0 | 0.00 | 0.03 | 0.00 | 91 | 1007.8 |
| 20260904125607 | 81 | 118 | 3.0 | 4.0 | 0.00 | 0.03 | 0.00 | 91 | 1007.8 |
| 20260904125508 | 81 | 118 | 2.0 | 4.0 | 0.00 | 0.03 | 0.00 | 91 | 1007.8 |
| 20260904125408 | 81 | 120 | 2.0 | 3.0 | 0.00 | 0.03 | 0.00 | 91 | 1007.8 |
| 20260904125309 | 81 | 120 | 3.0 | 3.0 | 0.00 | 0.03 | 0.00 | 91 | 1007.8 |
| 20260904125208 | 81 | 120 | 3.0 | 3.0 | 0.00 | 0.03 | 0.00 | 92 | 1007.8 |
| 20260904125108 | 81 | 124 | 2.0 | 3.0 | 0.00 | 0.03 | 0.00 | 92 | 1007.8 |
| 20260904125008 | 81 | 124 | 2.0 | 3.0 | 0.00 | 0.03 | 0.00 | 92 | 1007.7 |
| 20260904124909 | 81 | 124 | 1.0 | 2.0 | 0.00 | 0.03 | 0.00 | 92 | 1007.8 |
| 20260904124808 | 81 | 124 | 1.0 | 2.0 | 0.00 | 0.03 | 0.00 | 92 | 1007.7 |
| 20260904124708 | 81 | 124 | 1.0 | 2.0 | 0.00 | 0.03 | 0.00 | 92 | 1007.7 |
| 20260904124608 | 81 | 124 | 1.0 | 3.0 | 0.00 | 0.03 | 0.00 | 92 | 1007.7 |
| 20260904124508 | 80 | 124 | 2.0 | 3.0 | 0.00 | 0.03 | 0.00 | 92 | 1007.7 |
| 20260904124408 | 80 | 124 | 1.0 | 3.0 | 0.00 | 0.03 | 0.00 | 92 | 1007.7 |
| 20260904124308 | 80 | 124 | 0.0 | 3.0 | 0.00 | 0.03 | 0.00 | 92 | 1007.7 |
| 20260904124208 | 80 | 124 | 0.0 | 3.0 | 0.00 | 0.03 | 0.00 | 92 | 1007.6 |
| 20260904124108 | 80 | 124 | 0.0 | 3.0 | 0.00 | 0.03 | 0.00 | 92 | 1007.6 |
| 20260904124007 | 80 | 124 | 1.0 | 3.0 | 0.00 | 0.03 | 0.00 | 92 | 1007.6 |
| 20260904123909 | 80 | 124 | 1.0 | 3.0 | 0.00 | 0.03 | 0.00 | 92 | 1007.6 |
| 20260904123807 | 80 | 124 | 1.0 | 3.0 | 0.00 | 0.03 | 0.00 | 92 | 1007.6 |
| 20260904123710 | 80 | 124 | 1.0 | 3.0 | 0.00 | 0.03 | 0.00 | 92 | 1007.5 |
| 20260904123608 | 80 | 125 | 0.0 | 0.0 | 0.00 | 0.03 | 0.00 | 92 | 1007.6 |
| 20260904123508 | 80 | 125 | 0.0 | 0.0 | 0.00 | 0.03 | 0.00 | 92 | 1007.5 |
| 20260904123407 | 80 | 125 | 0.0 | 0.0 | 0.00 | 0.03 | 0.00 | 92 | 1007.6 |
| 20260904123309 | 80 | 125 | 0.0 | 0.0 | 0.00 | 0.03 | 0.00 | 92 | 1007.6 |
| 20260904123207 | 80 | 125 | 0.0 | 0.0 | 0.00 | 0.03 | 0.00 | 92 | 1007.5 |
| 20260904123107 | 80 | 125 | 0.0 | 1.0 | 0.00 | 0.03 | 0.00 | 92 | 1007.5 |
| 20260904123009 | 80 | 125 | 0.0 | 1.0 | 0.00 | 0.03 | 0.00 | 92 | 1007.5 |
| 20260904122908 | 80 | 125 | 0.0 | 2.0 | 0.00 | 0.03 | 0.00 | 92 | 1007.5 |
| 20260904122807 | 80 | 125 | 0.0 | 2.0 | 0.00 | 0.03 | 0.00 | 92 | 1007.5 |
| 20260904122708 | 80 | 125 | 0.0 | 2.0 | 0.00 | 0.03 | 0.00 | 92 | 1007.4 |
| 20260904122607 | 80 | 125 | 0.0 | 2.0 | 0.00 | 0.03 | 0.00 | 92 | 1007.5 |
| 20260904122507 | 80 | 125 | 0.0 | 2.0 | 0.00 | 0.03 | 0.00 | 92 | 1007.4 |
| 20260904122409 | 80 | 125 | 0.0 | 2.0 | 0.00 | 0.03 | 0.00 | 92 | 1007.4 |
| 20260904122307 | 80 | 125 | 0.0 | 2.0 | 0.00 | 0.03 | 0.00 | 92 | 1007.4 |
| 20260904122208 | 80 | 125 | 0.0 | 2.0 | 0.00 | 0.03 | 0.00 | 92 | 1007.3 |
| 20260904122106 | 80 | 125 | 0.0 | 2.0 | 0.00 | 0.03 | 0.00 | 92 | 1007.3 |
| 20260904122007 | 80 | 125 | 0.0 | 2.0 | 0.00 | 0.03 | 0.00 | 92 | 1007.4 |
| 20260904121908 | 80 | 125 | 0.0 | 2.0 | 0.00 | 0.03 | 0.00 | 92 | 1007.4 |
| 20260904121806 | 80 | 125 | 0.0 | 2.0 | 0.00 | 0.03 | 0.00 | 92 | 1007.3 |
| 20260904121706 | 80 | 125 | 0.0 | 2.0 | 0.00 | 0.03 | 0.00 | 92 | 1007.3 |
| 20260904121606 | 80 | 125 | 0.0 | 2.0 | 0.00 | 0.03 | 0.00 | 92 | 1007.3 |
| 20260904121507 | 80 | 125 | 1.0 | 2.0 | 0.00 | 0.03 | 0.00 | 92 | 1007.4 |
| 20260904121407 | 80 | 125 | 2.0 | 2.0 | 0.00 | 0.03 | 0.00 | 92 | 1007.4 |
| 20260904121308 | 80 | 125 | 1.0 | 2.0 | 0.00 | 0.03 | 0.00 | 92 | 1007.4 |
| 20260904121206 | 80 | 125 | 0.0 | 1.0 | 0.00 | 0.03 | 0.00 | 92 | 1007.4 |
| 20260904121108 | 80 | 125 | 0.0 | 0.0 | 0.00 | 0.03 | 0.00 | 92 | 1007.3 |
| 20260904121007 | 80 | 125 | 0.0 | 0.0 | 0.00 | 0.03 | 0.00 | 92 | 1007.3 |
| 20260904120906 | 80 | 125 | 0.0 | 0.0 | 0.00 | 0.03 | 0.00 | 92 | 1007.3 |
| 20260904120806 | 80 | 125 | 0.0 | 0.0 | 0.00 | 0.03 | 0.00 | 92 | 1007.2 |
| 20260904120709 | 80 | 125 | 0.0 | 0.0 | 0.00 | 0.03 | 0.00 | 92 | 1007.2 |
| 20260904120606 | 80 | 125 | 0.0 | 0.0 | 0.00 | 0.03 | 0.00 | 92 | 1007.2 |
| 20260904120506 | 80 | 125 | 0.0 | 0.0 | 0.00 | 0.03 | 0.00 | 92 | 1007.2 |
| 20260904120406 | 80 | 125 | 0.0 | 0.0 | 0.00 | 0.03 | 0.00 | 92 | 1007.2 |
| 20260904120307 | 80 | 125 | 0.0 | 0.0 | 0.00 | 0.03 | 0.00 | 92 | 1007.3 |
| 20260904120207 | 80 | 125 | 0.0 | 0.0 | 0.00 | 0.03 | 0.00 | 92 | 1007.2 |
| 20260904120106 | 80 | 125 | 0.0 | 0.0 | 0.00 | 0.03 | 0.00 | 92 | 1007.2 |
| 20260904120007 | 80 | 125 | 0.0 | 0.0 | 0.00 | 0.03 | 0.00 | 92 | 1007.2 |
| 20260904115906 | 80 | 125 | 0.0 | 0.0 | 0.00 | 0.03 | 0.00 | 92 | 1007.2 |
| 20260904115806 | 80 | 125 | 0.0 | 0.0 | 0.00 | 0.03 | 0.00 | 92 | 1007.2 |
| 20260904115707 | 80 | 125 | 0.0 | 0.0 | 0.00 | 0.03 | 0.00 | 92 | 1007.2 |
| 20260904115606 | 80 | 125 | 0.0 | 0.0 | 0.00 | 0.03 | 0.00 | 92 | 1007.2 |
| 20260904115506 | 80 | 125 | 0.0 | 0.0 | 0.00 | 0.03 | 0.00 | 92 | 1007.2 |
| 20260904115406 | 80 | 125 | 0.0 | 0.0 | 0.00 | 0.03 | 0.00 | 92 | 1007.2 |
| 20260904115307 | 80 | 125 | 0.0 | 0.0 | 0.00 | 0.03 | 0.00 | 91 | 1007.2 |
| 20260904115208 | 80 | 125 | 0.0 | 0.0 | 0.00 | 0.03 | 0.00 | 91 | 1007.3 |
| 20260904115106 | 80 | 125 | 0.0 | 0.0 | 0.00 | 0.03 | 0.00 | 91 | 1007.2 |
| 20260904115006 | 80 | 125 | 0.0 | 0.0 | 0.00 | 0.03 | 0.00 | 91 | 1007.2 |
| 20260904114906 | 80 | 125 | 0.0 | 0.0 | 0.00 | 0.03 | 0.00 | 91 | 1007.2 |
| 20260904114806 | 80 | 125 | 0.0 | 0.0 | 0.00 | 0.03 | 0.00 | 91 | 1007.2 |
| 20260904114706 | 80 | 125 | 0.0 | 0.0 | 0.00 | 0.03 | 0.00 | 91 | 1007.2 |
| 20260904114606 | 80 | 125 | 0.0 | 0.0 | 0.00 | 0.03 | 0.00 | 91 | 1007.2 |
| 20260904114506 | 80 | 125 | 0.0 | 0.0 | 0.00 | 0.03 | 0.00 | 91 | 1007.3 |
| 20260904114407 | 80 | 125 | 0.0 | 0.0 | 0.00 | 0.03 | 0.00 | 91 | 1007.3 |
| 20260904114306 | 80 | 125 | 0.0 | 0.0 | 0.00 | 0.03 | 0.00 | 91 | 1007.3 |
| 20260904114205 | 80 | 125 | 0.0 | 0.0 | 0.00 | 0.03 | 0.00 | 91 | 1007.2 |
| 20260904114107 | 80 | 125 | 0.0 | 0.0 | 0.00 | 0.03 | 0.00 | 91 | 1007.3 |
| 20260904114006 | 80 | 125 | 0.0 | 0.0 | 0.00 | 0.03 | 0.00 | 91 | 1007.3 |
| 20260904113906 | 80 | 125 | 0.0 | 0.0 | 0.00 | 0.03 | 0.00 | 91 | 1007.3 |
| 20260904113805 | 80 | 125 | 0.0 | 0.0 | 0.00 | 0.03 | 0.00 | 91 | 1007.2 |
| 20260904113705 | 80 | 125 | 0.0 | 0.0 | 0.00 | 0.03 | 0.00 | 91 | 1007.2 |
| 20260904113607 | 80 | 125 | 0.0 | 0.0 | 0.00 | 0.03 | 0.00 | 91 | 1007.3 |
| 20260904113506 | 80 | 125 | 0.0 | 0.0 | 0.00 | 0.03 | 0.00 | 91 | 1007.3 |
| 20260904113406 | 80 | 125 | 0.0 | 0.0 | 0.00 | 0.03 | 0.00 | 91 | 1007.3 |
| 20260904113305 | 80 | 125 | 0.0 | 0.0 | 0.00 | 0.03 | 0.00 | 91 | 1007.2 |
| 20260904113206 | 80 | 125 | 0.0 | 0.0 | 0.00 | 0.03 | 0.00 | 91 | 1007.2 |
| 20260904113105 | 80 | 125 | 0.0 | 0.0 | 0.00 | 0.03 | 0.00 | 91 | 1007.2 |
| 20260904113005 | 80 | 125 | 0.0 | 0.0 | 0.00 | 0.03 | 0.00 | 92 | 1007.3 |
| 20260904112905 | 80 | 125 | 0.0 | 0.0 | 0.00 | 0.03 | 0.00 | 92 | 1007.2 |
| 20260904112807 | 80 | 125 | 0.0 | 0.0 | 0.00 | 0.03 | 0.00 | 92 | 1007.2 |
| 20260904112707 | 80 | 125 | 0.0 | 0.0 | 0.00 | 0.03 | 0.00 | 92 | 1007.1 |
| 20260904112605 | 80 | 125 | 0.0 | 0.0 | 0.00 | 0.03 | 0.00 | 92 | 1007.0 |
| 20260904112506 | 80 | 125 | 0.0 | 0.0 | 0.00 | 0.03 | 0.00 | 92 | 1007.1 |
| 20260904112405 | 80 | 125 | 0.0 | 0.0 | 0.00 | 0.03 | 0.00 | 92 | 1007.0 |
| 20260904112307 | 80 | 125 | 0.0 | 0.0 | 0.00 | 0.03 | 0.00 | 92 | 1007.0 |
| 20260904112205 | 80 | 125 | 0.0 | 0.0 | 0.00 | 0.03 | 0.00 | 92 | 1007.0 |
| 20260904112105 | 80 | 125 | 0.0 | 0.0 | 0.00 | 0.03 | 0.00 | 91 | 1007.0 |
| 20260904112006 | 80 | 125 | 0.0 | 0.0 | 0.00 | 0.03 | 0.00 | 91 | 1007.0 |
| 20260904111907 | 80 | 125 | 0.0 | 0.0 | 0.00 | 0.03 | 0.00 | 91 | 1007.0 |
| 20260904111806 | 80 | 125 | 0.0 | 0.0 | 0.00 | 0.03 | 0.00 | 91 | 1007.0 |
| 20260904111706 | 80 | 125 | 0.0 | 0.0 | 0.00 | 0.03 | 0.00 | 91 | 1007.0 |
| 20260904111607 | 80 | 125 | 0.0 | 0.0 | 0.00 | 0.03 | 0.00 | 91 | 1007.0 |
| 20260904111505 | 80 | 125 | 0.0 | 0.0 | 0.00 | 0.03 | 0.00 | 91 | 1007.1 |
| 20260904111407 | 80 | 125 | 0.0 | 0.0 | 0.00 | 0.03 | 0.00 | 91 | 1007.0 |
| 20260904111305 | 80 | 125 | 0.0 | 0.0 | 0.00 | 0.03 | 0.00 | 91 | 1007.0 |
| 20260904111205 | 80 | 125 | 0.0 | 0.0 | 0.00 | 0.03 | 0.00 | 91 | 1007.1 |
| 20260904111105 | 80 | 125 | 0.0 | 0.0 | 0.00 | 0.03 | 0.00 | 91 | 1007.0 |
| 20260904111005 | 80 | 125 | 0.0 | 0.0 | 0.00 | 0.03 | 0.00 | 91 | 1007.0 |
| 20260904110906 | 80 | 125 | 0.0 | 0.0 | 0.00 | 0.03 | 0.00 | 91 | 1007.0 |
| 20260904110805 | 80 | 125 | 0.0 | 0.0 | 0.00 | 0.03 | 0.00 | 91 | 1007.0 |
| 20260904110705 | 80 | 125 | 0.0 | 0.0 | 0.00 | 0.03 | 0.00 | 91 | 1007.0 |
| 20260904110605 | 80 | 125 | 0.0 | 0.0 | 0.00 | 0.03 | 0.00 | 91 | 1007.0 |
| 20260904110505 | 80 | 125 | 0.0 | 0.0 | 0.00 | 0.03 | 0.00 | 91 | 1007.1 |
| 20260904110405 | 80 | 125 | 0.0 | 0.0 | 0.00 | 0.03 | 0.00 | 91 | 1007.0 |
| 20260904110305 | 80 | 125 | 0.0 | 0.0 | 0.00 | 0.03 | 0.00 | 91 | 1007.0 |
| 20260904110205 | 80 | 125 | 0.0 | 0.0 | 0.00 | 0.03 | 0.00 | 91 | 1007.0 |
| 20260904110106 | 80 | 125 | 0.0 | 0.0 | 0.00 | 0.03 | 0.00 | 91 | 1007.1 |
| 20260904110006 | 80 | 125 | 0.0 | 0.0 | 0.00 | 0.03 | 0.00 | 91 | 1007.1 |
| 20260904105904 | 80 | 125 | 0.0 | 0.0 | 0.00 | 0.03 | 0.00 | 91 | 1007.1 |
| 20260904105804 | 80 | 125 | 0.0 | 0.0 | 0.00 | 0.03 | 0.00 | 91 | 1007.1 |
| 20260904105705 | 80 | 125 | 0.0 | 0.0 | 0.00 | 0.03 | 0.00 | 91 | 1007.1 |
| 20260904105604 | 80 | 125 | 0.0 | 0.0 | 0.00 | 0.03 | 0.00 | 91 | 1007.0 |
| 20260904105505 | 80 | 125 | 0.0 | 0.0 | 0.00 | 0.03 | 0.00 | 91 | 1007.1 |
| 20260904105406 | 80 | 125 | 0.0 | 0.0 | 0.00 | 0.03 | 0.00 | 91 | 1007.1 |
| 20260904105306 | 80 | 125 | 0.0 | 0.0 | 0.00 | 0.03 | 0.00 | 91 | 1007.1 |
| 20260904105204 | 80 | 125 | 0.0 | 0.0 | 0.00 | 0.03 | 0.00 | 91 | 1007.1 |
| 20260904105104 | 80 | 125 | 0.0 | 0.0 | 0.00 | 0.03 | 0.00 | 91 | 1007.0 |
| 20260904105005 | 80 | 125 | 0.0 | 0.0 | 0.00 | 0.03 | 0.00 | 91 | 1007.0 |
| 20260904104905 | 80 | 125 | 0.0 | 0.0 | 0.00 | 0.03 | 0.00 | 91 | 1007.0 |
| 20260904104805 | 80 | 125 | 0.0 | 0.0 | 0.00 | 0.03 | 0.00 | 91 | 1007.1 |
| 20260904104707 | 80 | 125 | 0.0 | 0.0 | 0.00 | 0.03 | 0.00 | 91 | 1007.1 |
| 20260904104605 | 80 | 125 | 0.0 | 0.0 | 0.00 | 0.03 | 0.00 | 91 | 1007.0 |
| 20260904104505 | 80 | 125 | 0.0 | 0.0 | 0.00 | 0.03 | 0.00 | 91 | 1007.0 |
| 20260904104404 | 80 | 125 | 0.0 | 0.0 | 0.00 | 0.03 | 0.00 | 91 | 1007.1 |
| 20260904104306 | 80 | 125 | 0.0 | 0.0 | 0.00 | 0.03 | 0.00 | 91 | 1007.1 |
| 20260904104204 | 80 | 125 | 0.0 | 0.0 | 0.00 | 0.03 | 0.00 | 91 | 1007.1 |
| 20260904104104 | 80 | 125 | 0.0 | 0.0 | 0.00 | 0.03 | 0.00 | 91 | 1007.1 |
| 20260904104006 | 80 | 125 | 0.0 | 0.0 | 0.00 | 0.03 | 0.00 | 90 | 1007.0 |
| 20260904103904 | 80 | 125 | 0.0 | 0.0 | 0.00 | 0.03 | 0.00 | 90 | 1007.0 |
| 20260904103804 | 80 | 125 | 0.0 | 0.0 | 0.00 | 0.03 | 0.00 | 90 | 1007.0 |
| 20260904103704 | 80 | 125 | 0.0 | 0.0 | 0.00 | 0.03 | 0.00 | 90 | 1007.0 |
| 20260904103604 | 80 | 125 | 0.0 | 0.0 | 0.00 | 0.03 | 0.00 | 90 | 1007.0 |
| 20260904103506 | 80 | 125 | 0.0 | 0.0 | 0.00 | 0.03 | 0.00 | 90 | 1007.0 |
| 20260904103405 | 80 | 125 | 0.0 | 0.0 | 0.00 | 0.03 | 0.00 | 90 | 1006.9 |
| 20260904103306 | 80 | 125 | 0.0 | 0.0 | 0.00 | 0.03 | 0.00 | 90 | 1006.9 |
| 20260904103204 | 80 | 125 | 0.0 | 0.0 | 0.00 | 0.03 | 0.00 | 90 | 1006.9 |
| 20260904103106 | 80 | 125 | 0.0 | 0.0 | 0.00 | 0.03 | 0.00 | 90 | 1006.9 |
| 20260904103004 | 80 | 125 | 0.0 | 0.0 | 0.00 | 0.03 | 0.00 | 90 | 1007.0 |
| 20260904102904 | 80 | 125 | 0.0 | 0.0 | 0.00 | 0.03 | 0.00 | 90 | 1006.9 |
| 20260904102804 | 80 | 125 | 0.0 | 0.0 | 0.00 | 0.03 | 0.00 | 90 | 1007.0 |
| 20260904102704 | 80 | 125 | 0.0 | 0.0 | 0.00 | 0.03 | 0.00 | 90 | 1006.9 |
| 20260904102605 | 80 | 125 | 0.0 | 0.0 | 0.00 | 0.03 | 0.00 | 90 | 1006.9 |
| 20260904102505 | 80 | 125 | 0.0 | 0.0 | 0.00 | 0.03 | 0.00 | 90 | 1006.9 |
| 20260904102406 | 80 | 125 | 0.0 | 0.0 | 0.00 | 0.03 | 0.00 | 90 | 1006.9 |
| 20260904102306 | 80 | 125 | 0.0 | 0.0 | 0.00 | 0.03 | 0.00 | 90 | 1006.9 |
| 20260904102204 | 80 | 125 | 0.0 | 0.0 | 0.00 | 0.03 | 0.00 | 90 | 1006.9 |
| 20260904102105 | 80 | 125 | 0.0 | 0.0 | 0.00 | 0.03 | 0.00 | 90 | 1006.9 |
| 20260904102005 | 80 | 125 | 0.0 | 0.0 | 0.00 | 0.03 | 0.00 | 90 | 1006.8 |
| 20260904101906 | 80 | 125 | 0.0 | 0.0 | 0.00 | 0.03 | 0.00 | 90 | 1006.8 |
| 20260904101803 | 80 | 125 | 0.0 | 0.0 | 0.00 | 0.03 | 0.00 | 90 | 1006.8 |
| 20260904101706 | 80 | 125 | 0.0 | 0.0 | 0.00 | 0.03 | 0.00 | 90 | 1006.7 |
| 20260904101604 | 80 | 125 | 0.0 | 0.0 | 0.00 | 0.03 | 0.00 | 90 | 1006.7 |
| 20260904101504 | 80 | 125 | 0.0 | 0.0 | 0.00 | 0.03 | 0.00 | 90 | 1006.7 |
| 20260904101403 | 81 | 125 | 0.0 | 0.0 | 0.00 | 0.03 | 0.00 | 90 | 1006.7 |
| 20260904101305 | 81 | 125 | 0.0 | 0.0 | 0.00 | 0.03 | 0.00 | 90 | 1006.6 |
| 20260904101205 | 81 | 125 | 0.0 | 0.0 | 0.00 | 0.03 | 0.00 | 90 | 1006.6 |
| 20260904101103 | 81 | 125 | 0.0 | 0.0 | 0.00 | 0.03 | 0.00 | 90 | 1006.7 |
| 20260904101004 | 81 | 125 | 0.0 | 0.0 | 0.00 | 0.03 | 0.00 | 90 | 1006.7 |
| 20260904100905 | 81 | 125 | 0.0 | 0.0 | 0.00 | 0.03 | 0.00 | 90 | 1006.7 |
| 20260904100804 | 81 | 125 | 0.0 | 0.0 | 0.00 | 0.03 | 0.00 | 90 | 1006.7 |
| 20260904100704 | 81 | 125 | 0.0 | 0.0 | 0.00 | 0.03 | 0.00 | 90 | 1006.6 |
| 20260904100603 | 81 | 125 | 0.0 | 0.0 | 0.00 | 0.03 | 0.00 | 90 | 1006.6 |
| 20260904100504 | 81 | 125 | 0.0 | 0.0 | 0.00 | 0.03 | 0.00 | 90 | 1006.6 |
| 20260904100404 | 81 | 125 | 0.0 | 0.0 | 0.00 | 0.03 | 0.00 | 90 | 1006.7 |
| 20260904100303 | 81 | 125 | 0.0 | 0.0 | 0.00 | 0.03 | 0.00 | 90 | 1006.7 |
| 20260904100203 | 81 | 125 | 0.0 | 0.0 | 0.00 | 0.03 | 0.00 | 90 | 1006.7 |
| 20260904100104 | 81 | 125 | 0.0 | 0.0 | 0.00 | 0.03 | 0.00 | 90 | 1006.7 |
| 20260904100004 | 81 | 125 | 0.0 | 0.0 | 0.00 | 0.03 | 0.00 | 90 | 1006.7 |
| 20260904095904 | 81 | 125 | 0.0 | 0.0 | 0.00 | 0.03 | 0.00 | 90 | 1006.7 |
| 20260904095803 | 81 | 125 | 0.0 | 0.0 | 0.00 | 0.03 | 0.00 | 90 | 1006.7 |
| 20260904095703 | 81 | 125 | 0.0 | 0.0 | 0.00 | 0.03 | 0.00 | 90 | 1006.6 |
| 20260904095604 | 81 | 125 | 0.0 | 0.0 | 0.00 | 0.03 | 0.00 | 90 | 1006.7 |
| 20260904095504 | 81 | 125 | 0.0 | 0.0 | 0.00 | 0.03 | 0.00 | 90 | 1006.6 |
| 20260904095404 | 81 | 125 | 0.0 | 1.0 | 0.00 | 0.03 | 0.00 | 90 | 1006.7 |
| 20260904095306 | 81 | 125 | 0.0 | 1.0 | 0.00 | 0.03 | 0.00 | 90 | 1006.7 |
| 20260904095203 | 81 | 125 | 0.0 | 1.0 | 0.00 | 0.03 | 0.00 | 90 | 1006.6 |
| 20260904095104 | 81 | 125 | 0.0 | 1.0 | 0.00 | 0.03 | 0.00 | 90 | 1006.6 |
| 20260904095004 | 81 | 125 | 0.0 | 1.0 | 0.00 | 0.03 | 0.00 | 90 | 1006.7 |
| 20260904094903 | 81 | 125 | 0.0 | 1.0 | 0.00 | 0.03 | 0.00 | 90 | 1006.6 |
| 20260904094805 | 81 | 125 | 0.0 | 1.0 | 0.00 | 0.03 | 0.00 | 90 | 1006.6 |
| 20260904094703 | 81 | 125 | 0.0 | 1.0 | 0.00 | 0.03 | 0.00 | 89 | 1006.6 |
| 20260904094603 | 81 | 125 | 0.0 | 2.0 | 0.00 | 0.03 | 0.00 | 89 | 1006.6 |
| 20260904094505 | 81 | 125 | 0.0 | 2.0 | 0.00 | 0.03 | 0.00 | 89 | 1006.6 |
| 20260904094404 | 81 | 125 | 0.0 | 2.0 | 0.00 | 0.03 | 0.00 | 89 | 1006.6 |
| 20260904094303 | 81 | 125 | 0.0 | 2.0 | 0.00 | 0.03 | 0.00 | 89 | 1006.6 |
| 20260904094203 | 81 | 125 | 0.0 | 2.0 | 0.00 | 0.03 | 0.00 | 90 | 1006.6 |
| 20260904094103 | 81 | 125 | 0.0 | 2.0 | 0.00 | 0.03 | 0.00 | 89 | 1006.7 |
| 20260904094004 | 81 | 125 | 0.0 | 2.0 | 0.00 | 0.03 | 0.00 | 89 | 1006.6 |
| 20260904093905 | 81 | 125 | 0.0 | 2.0 | 0.00 | 0.03 | 0.00 | 90 | 1006.5 |
| 20260904093803 | 81 | 125 | 0.0 | 2.0 | 0.00 | 0.03 | 0.00 | 90 | 1006.6 |
| 20260904093702 | 81 | 125 | 0.0 | 2.0 | 0.00 | 0.03 | 0.00 | 90 | 1006.6 |
| 20260904093603 | 81 | 123 | 0.0 | 2.0 | 0.00 | 0.03 | 0.00 | 89 | 1006.5 |
| 20260904093503 | 81 | 123 | 0.0 | 2.0 | 0.00 | 0.03 | 0.00 | 89 | 1006.6 |
| 20260904093403 | 81 | 123 | 1.0 | 2.0 | 0.00 | 0.03 | 0.00 | 90 | 1006.6 |
| 20260904093302 | 81 | 120 | 0.0 | 2.0 | 0.00 | 0.03 | 0.00 | 90 | 1006.5 |
| 20260904093203 | 81 | 120 | 0.0 | 2.0 | 0.00 | 0.03 | 0.00 | 90 | 1006.6 |
| 20260904093103 | 81 | 120 | 1.0 | 2.0 | 0.00 | 0.03 | 0.00 | 90 | 1006.5 |
| 20260904093005 | 81 | 120 | 1.0 | 2.0 | 0.00 | 0.03 | 0.00 | 90 | 1006.5 |
| 20260904092902 | 81 | 120 | 0.0 | 2.0 | 0.00 | 0.03 | 0.00 | 90 | 1006.5 |
| 20260904092803 | 81 | 120 | 1.0 | 2.0 | 0.00 | 0.03 | 0.00 | 90 | 1006.4 |
| 20260904092702 | 81 | 120 | 1.0 | 2.0 | 0.00 | 0.03 | 0.00 | 90 | 1006.4 |
| 20260904092603 | 81 | 120 | 1.0 | 2.0 | 0.00 | 0.03 | 0.00 | 90 | 1006.5 |
| 20260904092453 | 81 | 120 | 1.0 | 2.0 | 0.00 | 0.03 | 0.00 | 90 | 1006.5 |
| 20260904092352 | 81 | 120 | 1.0 | 2.0 | 0.00 | 0.03 | 0.00 | 90 | 1006.4 |
| 20260904092249 | 81 | 120 | 1.0 | 2.0 | 0.00 | 0.03 | 0.00 | 90 | 1006.5 |
| 20260904092148 | 81 | 120 | 1.0 | 2.0 | 0.00 | 0.03 | 0.00 | 90 | 1006.4 |
| 20260904092047 | 81 | 120 | 2.0 | 2.0 | 0.00 | 0.03 | 0.00 | 90 | 1006.5 |
| 20260904091945 | 81 | 120 | 1.0 | 2.0 | 0.00 | 0.03 | 0.00 | 90 | 1006.5 |
| 20260904091844 | 81 | 120 | 1.0 | 2.0 | 0.00 | 0.03 | 0.00 | 90 | 1006.5 |
| 20260904091732 | 81 | 120 | 0.0 | 2.0 | 0.00 | 0.03 | 0.00 | 90 | 1006.5 |
| 20260904091633 | 81 | 120 | 0.0 | 2.0 | 0.00 | 0.03 | 0.00 | 90 | 1006.5 |
| 20260904091531 | 81 | 120 | 0.0 | 2.0 | 0.00 | 0.03 | 0.00 | 90 | 1006.5 |
| 20260904091433 | 81 | 120 | 1.0 | 2.0 | 0.00 | 0.03 | 0.00 | 89 | 1006.5 |
| 20260904091330 | 81 | 120 | 1.0 | 2.0 | 0.00 | 0.03 | 0.00 | 90 | 1006.5 |
| 20260904091233 | 81 | 120 | 1.0 | 2.0 | 0.00 | 0.03 | 0.00 | 90 | 1006.5 |
| 20260904091132 | 81 | 120 | 0.0 | 2.0 | 0.00 | 0.03 | 0.00 | 90 | 1006.5 |
| 20260904091032 | 81 | 120 | 0.0 | 2.0 | 0.00 | 0.03 | 0.00 | 90 | 1006.5 |
| 20260904090930 | 81 | 120 | 0.0 | 2.0 | 0.00 | 0.03 | 0.00 | 90 | 1006.5 |
| 20260904090829 | 81 | 120 | 0.0 | 3.0 | 0.00 | 0.03 | 0.00 | 90 | 1006.5 |
| 20260904090722 | 81 | 120 | 0.0 | 3.0 | 0.00 | 0.03 | 0.00 | 90 | 1006.5 |
| 20260904090611 | 81 | 120 | 0.0 | 3.0 | 0.00 | 0.03 | 0.00 | 90 | 1006.4 |
| 20260904090503 | 81 | 120 | 0.0 | 3.0 | 0.00 | 0.03 | 0.00 | 90 | 1006.4 |
| 20260904090403 | 81 | 120 | 1.0 | 3.0 | 0.00 | 0.03 | 0.00 | 90 | 1006.5 |
| 20260904090301 | 81 | 120 | 0.0 | 3.0 | 0.00 | 0.03 | 0.00 | 90 | 1006.5 |
| 20260904090203 | 81 | 120 | 0.0 | 3.0 | 0.00 | 0.03 | 0.00 | 90 | 1006.5 |
| 20260904090057 | 81 | 120 | 1.0 | 3.0 | 0.00 | 0.03 | 0.00 | 90 | 1006.6 |
| 20260904085956 | 81 | 120 | 2.0 | 3.0 | 0.00 | 0.03 | 0.00 | 90 | 1006.5 |
| 20260904085843 | 81 | 120 | 1.0 | 3.0 | 0.00 | 0.03 | 0.00 | 90 | 1006.5 |
| 20260904085744 | 81 | 120 | 1.0 | 3.0 | 0.00 | 0.03 | 0.00 | 90 | 1006.5 |
| 20260904085631 | 81 | 120 | 1.0 | 3.0 | 0.00 | 0.03 | 0.00 | 90 | 1006.5 |
| 20260904085533 | 81 | 120 | 0.0 | 3.0 | 0.00 | 0.03 | 0.00 | 90 | 1006.5 |
| 20260904085430 | 81 | 155 | 0.0 | 0.0 | 0.00 | 0.03 | 0.00 | 90 | 1006.6 |
| 20260904085327 | 81 | 155 | 0.0 | 0.0 | 0.00 | 0.03 | 0.00 | 90 | 1006.6 |
| 20260904085225 | 81 | 155 | 0.0 | 0.0 | 0.00 | 0.03 | 0.00 | 90 | 1006.6 |
| 20260904085117 | 81 | 155 | 0.0 | 0.0 | 0.00 | 0.03 | 0.00 | 90 | 1006.6 |
| 20260904085010 | 81 | 155 | 0.0 | 0.0 | 0.00 | 0.03 | 0.00 | 90 | 1006.6 |
| 20260904084903 | 81 | 155 | 0.0 | 0.0 | 0.00 | 0.03 | 0.00 | 90 | 1006.6 |
| 20260904084804 | 81 | 155 | 0.0 | 0.0 | 0.00 | 0.03 | 0.00 | 90 | 1006.6 |
| 20260904084702 | 81 | 155 | 0.0 | 0.0 | 0.00 | 0.03 | 0.00 | 90 | 1006.6 |
| 20260904084602 | 81 | 155 | 0.0 | 0.0 | 0.00 | 0.03 | 0.00 | 90 | 1006.6 |
| 20260904084503 | 81 | 155 | 0.0 | 0.0 | 0.00 | 0.03 | 0.00 | 90 | 1006.6 |
| 20260904084403 | 81 | 155 | 0.0 | 0.0 | 0.00 | 0.03 | 0.00 | 90 | 1006.6 |
| 20260904084303 | 81 | 155 | 0.0 | 0.0 | 0.00 | 0.03 | 0.00 | 90 | 1006.6 |
| 20260904084204 | 81 | 155 | 0.0 | 0.0 | 0.00 | 0.03 | 0.00 | 90 | 1006.7 |
| 20260904084103 | 81 | 155 | 0.0 | 0.0 | 0.00 | 0.03 | 0.00 | 90 | 1006.6 |
| 20260904084005 | 81 | 155 | 0.0 | 0.0 | 0.00 | 0.03 | 0.00 | 90 | 1006.5 |
| 20260904083903 | 81 | 155 | 0.0 | 0.0 | 0.00 | 0.03 | 0.00 | 90 | 1006.6 |
| 20260904083804 | 81 | 155 | 0.0 | 0.0 | 0.00 | 0.03 | 0.00 | 89 | 1006.6 |
| 20260904083703 | 81 | 155 | 0.0 | 0.0 | 0.00 | 0.03 | 0.00 | 89 | 1006.7 |
| 20260904083603 | 81 | 155 | 0.0 | 0.0 | 0.00 | 0.03 | 0.00 | 89 | 1006.6 |
| 20260904083503 | 81 | 155 | 0.0 | 0.0 | 0.00 | 0.03 | 0.00 | 89 | 1006.5 |
| 20260904083402 | 81 | 155 | 0.0 | 0.0 | 0.00 | 0.03 | 0.00 | 89 | 1006.6 |
| 20260904083302 | 81 | 155 | 0.0 | 0.0 | 0.00 | 0.03 | 0.00 | 89 | 1006.5 |
| 20260904083201 | 81 | 155 | 0.0 | 0.0 | 0.00 | 0.03 | 0.00 | 89 | 1006.6 |
| 20260904083102 | 81 | 155 | 0.0 | 0.0 | 0.00 | 0.03 | 0.00 | 89 | 1006.6 |
| 20260904083001 | 81 | 155 | 0.0 | 0.0 | 0.00 | 0.03 | 0.00 | 89 | 1006.6 |
| 20260904082902 | 81 | 155 | 0.0 | 0.0 | 0.00 | 0.03 | 0.00 | 89 | 1006.6 |
| 20260904082802 | 81 | 155 | 0.0 | 0.0 | 0.00 | 0.03 | 0.00 | 89 | 1006.6 |
| 20260904082703 | 81 | 155 | 0.0 | 0.0 | 0.00 | 0.03 | 0.00 | 89 | 1006.6 |
| 20260904082603 | 81 | 155 | 0.0 | 0.0 | 0.00 | 0.03 | 0.00 | 89 | 1006.6 |
| 20260904082502 | 81 | 155 | 0.0 | 0.0 | 0.00 | 0.03 | 0.00 | 89 | 1006.7 |
| 20260904082401 | 81 | 155 | 0.0 | 0.0 | 0.00 | 0.03 | 0.00 | 89 | 1006.7 |
| 20260904082305 | 81 | 155 | 0.0 | 0.0 | 0.00 | 0.03 | 0.00 | 89 | 1006.6 |
| 20260904082202 | 81 | 155 | 0.0 | 0.0 | 0.00 | 0.03 | 0.00 | 89 | 1006.7 |
| 20260904082103 | 81 | 155 | 0.0 | 0.0 | 0.00 | 0.03 | 0.00 | 89 | 1006.7 |
| 20260904082003 | 81 | 155 | 0.0 | 0.0 | 0.00 | 0.03 | 0.00 | 89 | 1006.7 |
| 20260904081901 | 81 | 155 | 0.0 | 0.0 | 0.00 | 0.03 | 0.00 | 89 | 1006.6 |
| 20260904081802 | 81 | 155 | 0.0 | 0.0 | 0.00 | 0.03 | 0.00 | 89 | 1006.7 |
| 20260904081702 | 81 | 155 | 0.0 | 0.0 | 0.00 | 0.03 | 0.00 | 89 | 1006.7 |
| 20260904081602 | 81 | 155 | 0.0 | 0.0 | 0.00 | 0.03 | 0.00 | 89 | 1006.7 |
| 20260904081501 | 81 | 155 | 0.0 | 0.0 | 0.00 | 0.03 | 0.00 | 89 | 1006.7 |
| 20260904081402 | 81 | 155 | 0.0 | 0.0 | 0.00 | 0.03 | 0.00 | 89 | 1006.7 |
| 20260904081302 | 81 | 155 | 0.0 | 0.0 | 0.00 | 0.03 | 0.00 | 89 | 1006.7 |
| 20260904081202 | 81 | 155 | 0.0 | 0.0 | 0.00 | 0.03 | 0.00 | 89 | 1006.7 |
| 20260904081102 | 81 | 155 | 0.0 | 0.0 | 0.00 | 0.03 | 0.00 | 89 | 1006.8 |
| 20260904081001 | 81 | 155 | 0.0 | 0.0 | 0.00 | 0.03 | 0.00 | 89 | 1006.8 |
| 20260904080901 | 81 | 155 | 0.0 | 0.0 | 0.00 | 0.03 | 0.00 | 89 | 1006.8 |
| 20260904080802 | 81 | 155 | 0.0 | 0.0 | 0.00 | 0.03 | 0.00 | 89 | 1006.8 |
| 20260904080650 | 81 | 155 | 0.0 | 0.0 | 0.00 | 0.03 | 0.00 | 89 | 1006.9 |
| 20260904080546 | 81 | 155 | 0.0 | 0.0 | 0.00 | 0.03 | 0.00 | 89 | 1006.8 |
| 20260904080447 | 81 | 155 | 0.0 | 0.0 | 0.00 | 0.03 | 0.00 | 89 | 1006.8 |
| 20260904080349 | 81 | 155 | 0.0 | 0.0 | 0.00 | 0.03 | 0.00 | 89 | 1006.9 |
| 20260904080239 | 81 | 155 | 0.0 | 0.0 | 0.00 | 0.03 | 0.00 | 89 | 1006.8 |
| 20260904080139 | 81 | 155 | 0.0 | 0.0 | 0.00 | 0.03 | 0.00 | 89 | 1006.8 |
| 20260904080035 | 81 | 155 | 0.0 | 0.0 | 0.00 | 0.03 | 0.00 | 89 | 1006.8 |
| 20260904075932 | 81 | 155 | 0.0 | 0.0 | 0.00 | 0.03 | 0.00 | 89 | 1006.8 |
| 20260904075832 | 81 | 155 | 0.0 | 0.0 | 0.00 | 0.03 | 0.00 | 89 | 1006.9 |
| 20260904075732 | 81 | 155 | 0.0 | 0.0 | 0.00 | 0.03 | 0.00 | 89 | 1006.8 |
| 20260904075632 | 81 | 155 | 0.0 | 0.0 | 0.00 | 0.03 | 0.00 | 89 | 1006.8 |
| 20260904075532 | 81 | 155 | 0.0 | 0.0 | 0.00 | 0.03 | 0.00 | 89 | 1006.9 |
| 20260904075431 | 81 | 155 | 0.0 | 0.0 | 0.00 | 0.03 | 0.00 | 89 | 1006.8 |
| 20260904075332 | 81 | 155 | 0.0 | 0.0 | 0.00 | 0.03 | 0.00 | 89 | 1006.9 |
| 20260904075207 | 81 | 155 | 0.0 | 0.0 | 0.00 | 0.03 | 0.00 | 89 | 1006.8 |
| 20260904075103 | 81 | 155 | 0.0 | 0.0 | 0.00 | 0.03 | 0.00 | 89 | 1006.9 |
| 20260904075004 | 81 | 155 | 0.0 | 0.0 | 0.00 | 0.03 | 0.00 | 89 | 1006.9 |
| 20260904074903 | 81 | 155 | 0.0 | 0.0 | 0.00 | 0.03 | 0.00 | 89 | 1006.9 |
| 20260904074804 | 81 | 155 | 0.0 | 0.0 | 0.00 | 0.03 | 0.00 | 89 | 1006.9 |
| 20260904074702 | 81 | 155 | 0.0 | 0.0 | 0.00 | 0.03 | 0.00 | 89 | 1006.8 |
| 20260904074602 | 81 | 155 | 0.0 | 0.0 | 0.00 | 0.03 | 0.00 | 89 | 1006.8 |
| 20260904074503 | 81 | 155 | 0.0 | 0.0 | 0.00 | 0.03 | 0.00 | 89 | 1006.8 |
| 20260904074402 | 81 | 155 | 0.0 | 0.0 | 0.00 | 0.03 | 0.00 | 89 | 1006.7 |
| 20260904074302 | 81 | 155 | 0.0 | 0.0 | 0.00 | 0.03 | 0.00 | 89 | 1006.8 |
| 20260904074203 | 81 | 155 | 0.0 | 0.0 | 0.00 | 0.03 | 0.00 | 89 | 1006.8 |
| 20260904074103 | 81 | 155 | 0.0 | 0.0 | 0.00 | 0.03 | 0.00 | 89 | 1006.8 |
| 20260904074002 | 81 | 155 | 0.0 | 0.0 | 0.00 | 0.03 | 0.00 | 89 | 1006.8 |
| 20260904073902 | 81 | 155 | 0.0 | 0.0 | 0.00 | 0.03 | 0.00 | 89 | 1006.8 |
| 20260904073802 | 81 | 155 | 0.0 | 0.0 | 0.00 | 0.03 | 0.00 | 89 | 1006.9 |
| 20260904073702 | 81 | 155 | 0.0 | 0.0 | 0.00 | 0.03 | 0.00 | 89 | 1006.9 |
| 20260904073602 | 81 | 155 | 0.0 | 0.0 | 0.00 | 0.03 | 0.00 | 89 | 1006.8 |
| 20260904073503 | 81 | 155 | 0.0 | 0.0 | 0.00 | 0.03 | 0.00 | 89 | 1006.9 |
| 20260904073402 | 81 | 155 | 0.0 | 0.0 | 0.00 | 0.03 | 0.00 | 89 | 1006.9 |
| 20260904073302 | 81 | 155 | 0.0 | 0.0 | 0.00 | 0.03 | 0.00 | 89 | 1006.9 |
| 20260904073203 | 81 | 155 | 0.0 | 0.0 | 0.00 | 0.03 | 0.00 | 89 | 1006.8 |
| 20260904073102 | 81 | 155 | 0.0 | 0.0 | 0.00 | 0.03 | 0.00 | 89 | 1006.8 |
| 20260904073004 | 81 | 155 | 0.0 | 0.0 | 0.00 | 0.03 | 0.00 | 89 | 1006.9 |
| 20260904072902 | 81 | 155 | 0.0 | 0.0 | 0.00 | 0.03 | 0.00 | 89 | 1006.9 |
| 20260904072803 | 81 | 155 | 0.0 | 2.0 | 0.00 | 0.03 | 0.00 | 89 | 1006.9 |
| 20260904072702 | 81 | 157 | 0.0 | 2.0 | 0.00 | 0.03 | 0.00 | 89 | 1007.0 |
| 20260904072602 | 81 | 157 | 0.0 | 2.0 | 0.00 | 0.03 | 0.00 | 89 | 1006.9 |
| 20260904072503 | 81 | 157 | 0.0 | 2.0 | 0.00 | 0.03 | 0.00 | 89 | 1006.9 |
| 20260904072402 | 81 | 157 | 0.0 | 2.0 | 0.00 | 0.03 | 0.00 | 89 | 1006.9 |
| 20260904072305 | 81 | 157 | 0.0 | 2.0 | 0.00 | 0.03 | 0.00 | 89 | 1006.9 |
| 20260904072203 | 81 | 157 | 0.0 | 2.0 | 0.00 | 0.03 | 0.00 | 89 | 1006.9 |
| 20260904072102 | 81 | 157 | 0.0 | 2.0 | 0.00 | 0.03 | 0.00 | 89 | 1006.9 |
| 20260904072003 | 81 | 157 | 0.0 | 2.0 | 0.00 | 0.03 | 0.00 | 89 | 1007.0 |
| 20260904071905 | 81 | 157 | 1.0 | 2.0 | 0.00 | 0.03 | 0.00 | 89 | 1006.9 |
| 20260904071803 | 81 | 157 | 0.0 | 2.0 | 0.00 | 0.03 | 0.00 | 89 | 1006.9 |
| 20260904071702 | 81 | 157 | 0.0 | 1.0 | 0.00 | 0.03 | 0.00 | 89 | 1006.9 |
| 20260904071559 | 81 | 157 | 0.0 | 1.0 | 0.00 | 0.03 | 0.00 | 89 | 1006.9 |
| 20260904071500 | 81 | 157 | 0.0 | 1.0 | 0.00 | 0.03 | 0.00 | 89 | 1006.9 |
| 20260904071359 | 81 | 157 | 0.0 | 1.0 | 0.00 | 0.03 | 0.00 | 89 | 1006.9 |
| 20260904071301 | 81 | 157 | 0.0 | 1.0 | 0.00 | 0.03 | 0.00 | 89 | 1007.0 |
| 20260904071200 | 81 | 157 | 0.0 | 1.0 | 0.00 | 0.03 | 0.00 | 89 | 1007.0 |
| 20260904071101 | 81 | 157 | 0.0 | 1.0 | 0.00 | 0.03 | 0.00 | 89 | 1007.0 |
| 20260904071000 | 81 | 157 | 0.0 | 1.0 | 0.00 | 0.03 | 0.00 | 89 | 1007.0 |
| 20260904070859 | 81 | 157 | 0.0 | 1.0 | 0.00 | 0.03 | 0.00 | 89 | 1007.0 |
| 20260904070759 | 81 | 157 | 0.0 | 1.0 | 0.00 | 0.03 | 0.00 | 89 | 1007.0 |
| 20260904070700 | 81 | 157 | 0.0 | 1.0 | 0.00 | 0.03 | 0.00 | 89 | 1007.1 |
| 20260904070601 | 81 | 157 | 0.0 | 1.0 | 0.00 | 0.03 | 0.00 | 89 | 1007.0 |
| 20260904070500 | 81 | 157 | 0.0 | 1.0 | 0.00 | 0.03 | 0.00 | 89 | 1007.0 |
| 20260904070400 | 81 | 157 | 0.0 | 1.0 | 0.00 | 0.03 | 0.00 | 89 | 1007.1 |
| 20260904070258 | 81 | 157 | 0.0 | 2.0 | 0.00 | 0.03 | 0.00 | 89 | 1007.1 |
| 20260904070156 | 81 | 157 | 0.0 | 2.0 | 0.00 | 0.03 | 0.00 | 89 | 1007.1 |
| 20260904070041 | 81 | 157 | 0.0 | 2.0 | 0.00 | 0.03 | 0.00 | 89 | 1007.1 |
| 20260904065940 | 81 | 157 | 0.0 | 2.0 | 0.00 | 0.03 | 0.00 | 89 | 1007.0 |
| 20260904065836 | 82 | 157 | 0.0 | 2.0 | 0.00 | 0.03 | 0.00 | 89 | 1007.1 |
| 20260904065732 | 81 | 157 | 0.0 | 2.0 | 0.00 | 0.03 | 0.00 | 89 | 1007.1 |
| 20260904065629 | 81 | 158 | 0.0 | 2.0 | 0.00 | 0.03 | 0.00 | 89 | 1007.1 |
| 20260904065526 | 81 | 158 | 0.0 | 2.0 | 0.00 | 0.03 | 0.00 | 89 | 1007.1 |
| 20260904065426 | 82 | 158 | 1.0 | 2.0 | 0.00 | 0.03 | 0.00 | 89 | 1007.1 |
| 20260904065314 | 82 | 157 | 1.0 | 2.0 | 0.00 | 0.03 | 0.00 | 89 | 1007.2 |
| 20260904065209 | 82 | 158 | 1.0 | 2.0 | 0.00 | 0.03 | 0.00 | 89 | 1007.2 |
| 20260904065108 | 82 | 158 | 0.0 | 2.0 | 0.00 | 0.03 | 0.00 | 89 | 1007.1 |